Time,TemperatureF,DewpointF,PressureIn,WindDirection,WindDirectionDegrees,WindSpeedMPH,WindSpeedGustMPH,Humidity,HourlyPrecipIn,Conditions,Clouds,dailyrainin,SoftwareType,DateUTC
2013-08-22 00:00:00,75.0,69.1,30.07,SW,217,5.0,10.0,82,0.00,,,0.00,meteohub,2013-08-22 04:00:00,
2013-08-22 00:01:00,75.0,69.1,30.07,WSW,240,3.0,10.0,82,0.00,,,0.00,meteohub,2013-08-22 04:01:00,
2013-08-22 00:02:00,75.0,69.1,30.07,SSW,204,3.0,10.0,82,0.00,,,0.00,meteohub,2013-08-22 04:02:00,
2013-08-22 00:06:00,75.0,69.1,30.07,West,265,6.0,9.0,82,0.00,,,0.00,meteohub,2013-08-22 04:06:00,
2013-08-22 00:07:00,75.0,69.1,30.07,SSW,203,6.0,9.0,82,0.00,,,0.00,meteohub,2013-08-22 04:07:00,
2013-08-22 00:11:00,75.0,68.7,30.07,SW,218,0.0,11.0,81,0.00,,,0.00,meteohub,2013-08-22 04:11:00,
2013-08-22 00:12:00,75.0,68.7,30.07,SW,219,3.0,11.0,81,0.00,,,0.00,meteohub,2013-08-22 04:12:00,
2013-08-22 00:16:00,75.0,68.7,30.07,SW,225,2.0,11.0,81,0.00,,,0.00,meteohub,2013-08-22 04:16:00,
2013-08-22 00:17:00,75.0,68.7,30.07,SW,225,2.0,11.0,81,0.00,,,0.00,meteohub,2013-08-22 04:17:00,
2013-08-22 00:18:00,75.0,68.7,30.07,SSW,199,2.0,11.0,81,0.00,,,0.00,meteohub,2013-08-22 04:18:00,
2013-08-22 00:22:00,75.0,68.7,30.07,SSW,202,5.0,11.0,81,0.00,,,0.00,meteohub,2013-08-22 04:22:00,
2013-08-22 00:23:00,75.0,68.7,30.07,SSW,210,2.0,11.0,81,0.00,,,0.00,meteohub,2013-08-22 04:23:00,
2013-08-22 00:27:00,75.0,68.7,30.06,South,178,6.0,9.0,81,0.00,,,0.00,meteohub,2013-08-22 04:27:00,
2013-08-22 00:28:00,75.0,69.1,30.06,SW,223,6.0,9.0,82,0.00,,,0.00,meteohub,2013-08-22 04:28:00,
2013-08-22 00:29:00,75.0,69.1,30.06,SSW,203,5.0,9.0,82,0.00,,,0.00,meteohub,2013-08-22 04:29:00,
2013-08-22 00:32:00,74.8,69.3,30.07,WSW,237,3.0,8.0,83,0.00,,,0.00,meteohub,2013-08-22 04:32:00,
2013-08-22 00:33:00,74.8,69.3,30.07,SW,234,3.0,8.0,83,0.00,,,0.00,meteohub,2013-08-22 04:33:00,
2013-08-22 00:34:00,74.7,69.1,30.07,SW,221,3.0,8.0,83,0.00,,,0.00,meteohub,2013-08-22 04:34:00,
2013-08-22 00:38:00,74.7,69.1,30.06,SSW,205,3.0,8.0,83,0.00,,,0.00,meteohub,2013-08-22 04:38:00,
2013-08-22 00:39:00,74.7,69.1,30.07,SW,228,5.0,8.0,83,0.00,,,0.00,meteohub,2013-08-22 04:39:00,
2013-08-22 00:43:00,74.7,68.7,30.07,WSW,238,8.0,9.0,82,0.00,,,0.00,meteohub,2013-08-22 04:43:00,
2013-08-22 00:44:00,74.7,68.7,30.07,SW,236,3.0,9.0,82,0.00,,,0.00,meteohub,2013-08-22 04:44:00,
2013-08-22 00:48:00,74.7,68.7,30.06,SSW,206,6.0,10.0,82,0.00,,,0.00,meteohub,2013-08-22 04:48:00,
2013-08-22 00:49:00,74.7,68.7,30.06,WSW,238,8.0,10.0,82,0.00,,,0.00,meteohub,2013-08-22 04:49:00,
2013-08-22 00:50:00,74.7,68.7,30.06,SW,229,4.0,10.0,82,0.00,,,0.00,meteohub,2013-08-22 04:50:00,
2013-08-22 00:53:00,74.8,68.9,30.07,SW,236,7.0,11.0,82,0.00,,,0.00,meteohub,2013-08-22 04:53:00,
2013-08-22 00:54:00,74.8,68.9,30.07,SSW,195,3.0,11.0,82,0.00,,,0.00,meteohub,2013-08-22 04:54:00,
2013-08-22 00:55:00,74.8,68.9,30.07,WSW,246,8.0,11.0,82,0.00,,,0.00,meteohub,2013-08-22 04:55:00,
2013-08-22 00:58:00,74.8,68.5,30.07,SW,231,8.0,12.0,81,0.00,,,0.00,meteohub,2013-08-22 04:58:00,
2013-08-22 00:59:00,74.8,68.5,30.07,SW,216,3.0,12.0,81,0.00,,,0.00,meteohub,2013-08-22 04:59:00,
2013-08-22 01:00:00,74.8,68.5,30.07,SW,227,4.0,12.0,81,0.00,,,0.00,meteohub,2013-08-22 05:00:00,
2013-08-22 01:03:00,74.8,68.5,30.07,SSW,210,8.0,12.0,81,0.00,,,0.00,meteohub,2013-08-22 05:03:00,
2013-08-22 01:04:00,74.8,68.5,30.07,West,261,7.0,12.0,81,0.00,,,0.00,meteohub,2013-08-22 05:04:00,
2013-08-22 01:05:00,74.8,68.5,30.07,WSW,247,8.0,12.0,81,0.00,,,0.00,meteohub,2013-08-22 05:05:00,
2013-08-22 01:06:00,74.8,68.9,30.07,SSW,213,7.0,11.0,82,0.00,,,0.00,meteohub,2013-08-22 05:06:00,
2013-08-22 01:08:00,74.8,68.9,30.07,SSW,200,5.0,11.0,82,0.00,,,0.00,meteohub,2013-08-22 05:08:00,
2013-08-22 01:10:00,74.8,68.9,30.07,SW,215,7.0,11.0,82,0.00,,,0.00,meteohub,2013-08-22 05:10:00,
2013-08-22 01:11:00,74.8,68.9,30.07,South,182,7.0,12.0,82,0.00,,,0.00,meteohub,2013-08-22 05:11:00,
2013-08-22 01:12:00,74.8,68.9,30.07,SW,224,7.0,12.0,82,0.00,,,0.00,meteohub,2013-08-22 05:12:00,
2013-08-22 01:15:00,74.8,68.9,30.06,SSW,213,5.0,12.0,82,0.00,,,0.00,meteohub,2013-08-22 05:15:00,
2013-08-22 01:16:00,74.8,68.9,30.06,SSW,211,7.0,13.0,82,0.00,,,0.00,meteohub,2013-08-22 05:16:00,
2013-08-22 01:18:00,74.7,68.7,30.07,SW,228,5.0,13.0,82,0.00,,,0.00,meteohub,2013-08-22 05:18:00,
2013-08-22 01:20:00,74.7,68.7,30.07,WSW,242,10.0,13.0,82,0.00,,,0.00,meteohub,2013-08-22 05:20:00,
2013-08-22 01:21:00,74.7,68.7,30.07,SW,215,4.0,13.0,82,0.00,,,0.00,meteohub,2013-08-22 05:21:00,
2013-08-22 01:23:00,74.7,68.7,30.07,SSW,209,6.0,13.0,82,0.00,,,0.00,meteohub,2013-08-22 05:23:00,
2013-08-22 01:25:00,74.7,68.7,30.07,SSW,207,4.0,13.0,82,0.00,,,0.00,meteohub,2013-08-22 05:25:00,
2013-08-22 01:26:00,74.7,68.7,30.07,WSW,246,5.0,13.0,82,0.00,,,0.00,meteohub,2013-08-22 05:26:00,
2013-08-22 01:27:00,74.7,68.7,30.07,SSW,212,1.0,13.0,82,0.00,,,0.00,meteohub,2013-08-22 05:27:00,
2013-08-22 01:28:00,74.7,68.7,30.07,SW,236,2.0,13.0,82,0.00,,,0.00,meteohub,2013-08-22 05:28:00,
2013-08-22 01:31:00,74.7,68.4,30.07,SW,225,8.0,13.0,81,0.00,,,0.00,meteohub,2013-08-22 05:31:00,
2013-08-22 01:32:00,74.7,68.4,30.07,SW,234,5.0,13.0,81,0.00,,,0.00,meteohub,2013-08-22 05:32:00,
2013-08-22 01:33:00,74.7,68.4,30.07,SW,227,7.0,13.0,81,0.00,,,0.00,meteohub,2013-08-22 05:33:00,
2013-08-22 01:36:00,74.8,68.5,30.07,SSW,197,3.0,13.0,81,0.00,,,0.00,meteohub,2013-08-22 05:36:00,
2013-08-22 01:37:00,74.7,68.4,30.07,WSW,242,6.0,13.0,81,0.00,,,0.00,meteohub,2013-08-22 05:37:00,
2013-08-22 01:38:00,74.8,68.5,30.07,WSW,240,10.0,13.0,81,0.00,,,0.00,meteohub,2013-08-22 05:38:00,
2013-08-22 01:39:00,74.8,68.5,30.07,SW,215,9.0,13.0,81,0.00,,,0.00,meteohub,2013-08-22 05:39:00,
2013-08-22 01:42:00,74.8,68.5,30.07,SW,219,6.0,13.0,81,0.00,,,0.00,meteohub,2013-08-22 05:42:00,
2013-08-22 01:43:00,74.8,68.5,30.07,WSW,239,5.0,13.0,81,0.00,,,0.00,meteohub,2013-08-22 05:43:00,
2013-08-22 01:45:00,74.8,68.5,30.06,SW,231,6.0,13.0,81,0.00,,,0.00,meteohub,2013-08-22 05:45:00,
2013-08-22 01:47:00,74.8,68.5,30.06,WSW,238,11.0,13.0,81,0.00,,,0.00,meteohub,2013-08-22 05:47:00,
2013-08-22 01:48:00,74.8,68.5,30.06,SSW,204,7.0,13.0,81,0.00,,,0.00,meteohub,2013-08-22 05:48:00,
2013-08-22 01:49:00,75.0,68.7,30.06,SW,227,6.0,13.0,81,0.00,,,0.00,meteohub,2013-08-22 05:49:00,
2013-08-22 01:52:00,75.0,68.7,30.06,SW,236,9.0,13.0,81,0.00,,,0.00,meteohub,2013-08-22 05:52:00,
2013-08-22 01:53:00,75.0,68.7,30.06,SSW,211,10.0,13.0,81,0.00,,,0.00,meteohub,2013-08-22 05:53:00,
2013-08-22 01:54:00,75.0,68.7,30.06,SSW,198,4.0,13.0,81,0.00,,,0.00,meteohub,2013-08-22 05:54:00,
2013-08-22 01:57:00,75.0,68.7,30.06,SSW,208,5.0,13.0,81,0.00,,,0.00,meteohub,2013-08-22 05:57:00,
2013-08-22 01:58:00,75.0,68.7,30.06,SW,225,7.0,13.0,81,0.00,,,0.00,meteohub,2013-08-22 05:58:00,
2013-08-22 01:59:00,75.0,69.1,30.06,SW,221,4.0,13.0,82,0.00,,,0.00,meteohub,2013-08-22 05:59:00,
2013-08-22 02:02:00,75.0,69.1,30.06,SW,227,13.0,14.0,82,0.00,,,0.00,meteohub,2013-08-22 06:02:00,
2013-08-22 02:03:00,75.0,69.1,30.06,WSW,249,8.0,14.0,82,0.00,,,0.00,meteohub,2013-08-22 06:03:00,
2013-08-22 02:04:00,75.0,69.1,30.06,SW,224,5.0,14.0,82,0.00,,,0.00,meteohub,2013-08-22 06:04:00,
2013-08-22 02:08:00,75.0,69.1,30.06,WSW,246,5.0,14.0,82,0.00,,,0.00,meteohub,2013-08-22 06:08:00,
2013-08-22 02:09:00,75.0,69.4,30.06,SW,219,8.0,14.0,83,0.00,,,0.00,meteohub,2013-08-22 06:09:00,
2013-08-22 02:10:00,75.0,69.4,30.06,SW,227,10.0,14.0,83,0.00,,,0.00,meteohub,2013-08-22 06:10:00,
2013-08-22 02:13:00,75.0,69.4,30.06,South,190,9.0,14.0,83,0.00,,,0.00,meteohub,2013-08-22 06:13:00,
2013-08-22 02:14:00,75.0,69.4,30.06,SW,216,8.0,14.0,83,0.00,,,0.00,meteohub,2013-08-22 06:14:00,
2013-08-22 02:15:00,75.0,69.4,30.06,SSW,212,10.0,14.0,83,0.00,,,0.00,meteohub,2013-08-22 06:15:00,
2013-08-22 02:17:00,75.0,69.4,30.06,SW,227,3.0,14.0,83,0.00,,,0.00,meteohub,2013-08-22 06:17:00,
2013-08-22 02:18:00,75.0,69.4,30.06,SW,221,8.0,14.0,83,0.00,,,0.00,meteohub,2013-08-22 06:18:00,
2013-08-22 02:19:00,75.0,69.4,30.06,SW,233,7.0,14.0,83,0.00,,,0.00,meteohub,2013-08-22 06:19:00,
2013-08-22 02:20:00,75.0,69.8,30.06,WSW,244,7.0,14.0,84,0.00,,,0.00,meteohub,2013-08-22 06:20:00,
2013-08-22 02:21:00,75.0,69.8,30.06,WSW,246,7.0,15.0,84,0.00,,,0.00,meteohub,2013-08-22 06:21:00,
2013-08-22 02:23:00,75.0,69.8,30.06,WSW,243,6.0,15.0,84,0.00,,,0.00,meteohub,2013-08-22 06:23:00,
2013-08-22 02:24:00,74.8,69.6,30.06,WSW,251,9.0,15.0,84,0.00,,,0.00,meteohub,2013-08-22 06:24:00,
2013-08-22 02:25:00,74.8,69.6,30.06,SW,232,7.0,15.0,84,0.00,,,0.00,meteohub,2013-08-22 06:25:00,
2013-08-22 02:26:00,74.8,69.6,30.06,WSW,248,11.0,15.0,84,0.00,,,0.00,meteohub,2013-08-22 06:26:00,
2013-08-22 02:28:00,74.8,69.6,30.06,WSW,250,8.0,15.0,84,0.00,,,0.00,meteohub,2013-08-22 06:28:00,
2013-08-22 02:29:00,74.8,69.6,30.06,SW,232,3.0,15.0,84,0.00,,,0.00,meteohub,2013-08-22 06:29:00,
2013-08-22 02:30:00,74.8,69.6,30.06,SW,233,5.0,12.0,84,0.00,,,0.00,meteohub,2013-08-22 06:30:00,
2013-08-22 02:32:00,74.8,70.0,30.06,SW,225,4.0,12.0,85,0.00,,,0.00,meteohub,2013-08-22 06:32:00,
2013-08-22 02:33:00,74.8,70.0,30.06,SW,219,6.0,12.0,85,0.00,,,0.00,meteohub,2013-08-22 06:33:00,
2013-08-22 02:34:00,74.8,70.0,30.06,SW,235,7.0,12.0,85,0.00,,,0.00,meteohub,2013-08-22 06:34:00,
2013-08-22 02:35:00,74.8,69.6,30.06,SW,215,10.0,11.0,84,0.00,,,0.00,meteohub,2013-08-22 06:35:00,
2013-08-22 02:37:00,74.8,69.6,30.06,SW,219,6.0,11.0,84,0.00,,,0.00,meteohub,2013-08-22 06:37:00,
2013-08-22 02:39:00,74.8,69.6,30.06,WSW,238,10.0,11.0,84,0.00,,,0.00,meteohub,2013-08-22 06:39:00,
2013-08-22 02:40:00,74.8,69.6,30.06,SW,227,5.0,12.0,84,0.00,,,0.00,meteohub,2013-08-22 06:40:00,
2013-08-22 02:42:00,74.8,69.6,30.06,WSW,254,4.0,12.0,84,0.00,,,0.00,meteohub,2013-08-22 06:42:00,
2013-08-22 02:43:00,74.8,69.6,30.06,SW,225,5.0,12.0,84,0.00,,,0.00,meteohub,2013-08-22 06:43:00,
2013-08-22 02:45:00,74.8,70.0,30.06,SW,229,5.0,12.0,85,0.00,,,0.00,meteohub,2013-08-22 06:45:00,
2013-08-22 02:46:00,74.8,70.0,30.06,SW,231,5.0,12.0,85,0.00,,,0.00,meteohub,2013-08-22 06:46:00,
2013-08-22 02:47:00,74.8,70.0,30.06,SW,220,6.0,12.0,85,0.00,,,0.00,meteohub,2013-08-22 06:47:00,
2013-08-22 02:48:00,74.8,70.0,30.06,SW,224,5.0,12.0,85,0.00,,,0.00,meteohub,2013-08-22 06:48:00,
2013-08-22 02:50:00,74.8,70.0,30.06,SW,217,7.0,12.0,85,0.00,,,0.00,meteohub,2013-08-22 06:50:00,
2013-08-22 02:51:00,74.8,70.0,30.05,WSW,248,7.0,12.0,85,0.00,,,0.00,meteohub,2013-08-22 06:51:00,
2013-08-22 02:53:00,74.8,70.0,30.05,WSW,240,3.0,12.0,85,0.00,,,0.00,meteohub,2013-08-22 06:53:00,
2013-08-22 02:55:00,74.8,70.0,30.06,WSW,248,11.0,12.0,85,0.00,,,0.00,meteohub,2013-08-22 06:55:00,
2013-08-22 02:56:00,74.8,70.0,30.06,WSW,241,9.0,13.0,85,0.00,,,0.00,meteohub,2013-08-22 06:56:00,
2013-08-22 02:58:00,74.8,70.0,30.06,WSW,237,5.0,13.0,85,0.00,,,0.00,meteohub,2013-08-22 06:58:00,
2013-08-22 03:00:00,74.8,70.0,30.06,WSW,238,3.0,13.0,85,0.00,,,0.00,meteohub,2013-08-22 07:00:00,
2013-08-22 03:01:00,74.8,70.0,30.06,SW,226,9.0,13.0,85,0.00,,,0.00,meteohub,2013-08-22 07:01:00,
2013-08-22 03:02:00,74.8,70.0,30.06,SW,233,5.0,13.0,85,0.00,,,0.00,meteohub,2013-08-22 07:02:00,
2013-08-22 03:04:00,74.8,70.0,30.06,SW,234,12.0,13.0,85,0.00,,,0.00,meteohub,2013-08-22 07:04:00,
2013-08-22 03:05:00,74.8,70.0,30.06,WSW,238,12.0,13.0,85,0.00,,,0.00,meteohub,2013-08-22 07:05:00,
2013-08-22 03:07:00,74.8,70.0,30.06,WSW,243,9.0,13.0,85,0.00,,,0.00,meteohub,2013-08-22 07:07:00,
2013-08-22 03:09:00,74.8,70.3,30.06,SW,231,11.0,13.0,86,0.00,,,0.00,meteohub,2013-08-22 07:09:00,
2013-08-22 03:10:00,74.8,70.3,30.06,SW,227,7.0,13.0,86,0.00,,,0.00,meteohub,2013-08-22 07:10:00,
2013-08-22 03:12:00,74.8,70.3,30.06,SW,220,4.0,13.0,86,0.00,,,0.00,meteohub,2013-08-22 07:12:00,
2013-08-22 03:14:00,74.8,70.3,30.06,SW,234,9.0,13.0,86,0.00,,,0.00,meteohub,2013-08-22 07:14:00,
2013-08-22 03:15:00,74.8,70.3,30.06,SW,225,7.0,13.0,86,0.00,,,0.00,meteohub,2013-08-22 07:15:00,
2013-08-22 03:17:00,74.8,70.3,30.06,West,261,3.0,13.0,86,0.00,,,0.00,meteohub,2013-08-22 07:17:00,
2013-08-22 03:19:00,74.8,70.3,30.06,WSW,257,5.0,13.0,86,0.00,,,0.00,meteohub,2013-08-22 07:19:00,
2013-08-22 03:20:00,74.8,70.3,30.06,WSW,253,4.0,12.0,86,0.00,,,0.00,meteohub,2013-08-22 07:20:00,
2013-08-22 03:22:00,74.8,70.7,30.06,WSW,238,5.0,12.0,87,0.00,,,0.00,meteohub,2013-08-22 07:22:00,
2013-08-22 03:23:00,74.8,70.7,30.05,WSW,247,9.0,12.0,87,0.00,,,0.00,meteohub,2013-08-22 07:23:00,
2013-08-22 03:25:00,74.8,70.7,30.05,WSW,246,10.0,12.0,87,0.00,,,0.00,meteohub,2013-08-22 07:25:00,
2013-08-22 03:26:00,74.8,70.7,30.05,WSW,238,3.0,11.0,87,0.00,,,0.00,meteohub,2013-08-22 07:26:00,
2013-08-22 03:28:00,74.8,70.7,30.05,WSW,237,4.0,11.0,87,0.00,,,0.00,meteohub,2013-08-22 07:28:00,
2013-08-22 03:31:00,74.8,70.7,30.05,WSW,244,10.0,12.0,87,0.00,,,0.00,meteohub,2013-08-22 07:31:00,
2013-08-22 03:33:00,74.8,70.7,30.05,WSW,250,7.0,12.0,87,0.00,,,0.00,meteohub,2013-08-22 07:33:00,
2013-08-22 03:36:00,74.7,70.9,30.05,West,265,7.0,12.0,88,0.00,,,0.00,meteohub,2013-08-22 07:36:00,
2013-08-22 03:38:00,74.7,70.5,30.05,West,261,10.0,12.0,87,0.00,,,0.00,meteohub,2013-08-22 07:38:00,
2013-08-22 03:39:00,74.5,70.3,30.05,WSW,238,9.0,12.0,87,0.00,,,0.00,meteohub,2013-08-22 07:39:00,
2013-08-22 03:41:00,74.3,69.8,30.05,WSW,247,4.0,10.0,86,0.00,,,0.00,meteohub,2013-08-22 07:41:00,
2013-08-22 03:43:00,74.3,69.8,30.04,WSW,258,6.0,10.0,86,0.00,,,0.00,meteohub,2013-08-22 07:43:00,
2013-08-22 03:44:00,74.3,69.8,30.04,WSW,246,5.0,10.0,86,0.00,,,0.00,meteohub,2013-08-22 07:44:00,
2013-08-22 03:46:00,74.5,70.0,30.04,SW,219,6.0,11.0,86,0.00,,,0.00,meteohub,2013-08-22 07:46:00,
2013-08-22 03:48:00,74.3,69.8,30.04,SW,216,6.0,11.0,86,0.00,,,0.00,meteohub,2013-08-22 07:48:00,
2013-08-22 03:49:00,74.3,69.8,30.04,SW,228,4.0,11.0,86,0.00,,,0.00,meteohub,2013-08-22 07:49:00,
2013-08-22 03:50:00,74.3,69.8,30.04,WSW,240,4.0,11.0,86,0.00,,,0.00,meteohub,2013-08-22 07:50:00,
2013-08-22 03:51:00,74.3,69.8,30.04,SW,231,5.0,11.0,86,0.00,,,0.00,meteohub,2013-08-22 07:51:00,
2013-08-22 03:52:00,74.3,69.8,30.04,SW,223,4.0,11.0,86,0.00,,,0.00,meteohub,2013-08-22 07:52:00,
2013-08-22 03:54:00,74.3,69.8,30.04,WNW,287,2.0,11.0,86,0.00,,,0.00,meteohub,2013-08-22 07:54:00,
2013-08-22 03:55:00,74.3,69.8,30.04,WSW,244,3.0,11.0,86,0.00,,,0.00,meteohub,2013-08-22 07:55:00,
2013-08-22 03:56:00,74.3,69.8,30.04,WSW,240,6.0,11.0,86,0.00,,,0.00,meteohub,2013-08-22 07:56:00,
2013-08-22 03:57:00,74.3,69.8,30.04,SW,235,3.0,11.0,86,0.00,,,0.00,meteohub,2013-08-22 07:57:00,
2013-08-22 04:00:00,74.3,69.8,30.04,WSW,252,3.0,11.0,86,0.00,,,0.00,meteohub,2013-08-22 08:00:00,
2013-08-22 04:01:00,74.3,69.8,30.04,WSW,248,4.0,10.0,86,0.00,,,0.00,meteohub,2013-08-22 08:01:00,
2013-08-22 04:02:00,74.3,69.8,30.04,WSW,240,2.0,10.0,86,0.00,,,0.00,meteohub,2013-08-22 08:02:00,
2013-08-22 04:03:00,74.3,69.8,30.04,WSW,244,2.0,10.0,86,0.00,,,0.00,meteohub,2013-08-22 08:03:00,
2013-08-22 04:05:00,74.3,69.8,30.04,WSW,238,3.0,10.0,86,0.00,,,0.00,meteohub,2013-08-22 08:05:00,
2013-08-22 04:06:00,74.3,69.8,30.04,WSW,248,3.0,8.0,86,0.00,,,0.00,meteohub,2013-08-22 08:06:00,
2013-08-22 04:07:00,74.3,69.8,30.04,WSW,243,3.0,8.0,86,0.00,,,0.00,meteohub,2013-08-22 08:07:00,
2013-08-22 04:08:00,74.3,69.8,30.04,WSW,240,1.0,8.0,86,0.00,,,0.00,meteohub,2013-08-22 08:08:00,
2013-08-22 04:10:00,74.3,69.8,30.04,SW,223,3.0,8.0,86,0.00,,,0.00,meteohub,2013-08-22 08:10:00,
2013-08-22 04:11:00,74.3,69.8,30.04,WSW,240,2.0,7.0,86,0.00,,,0.00,meteohub,2013-08-22 08:11:00,
2013-08-22 04:13:00,74.3,69.8,30.05,SW,225,4.0,7.0,86,0.00,,,0.00,meteohub,2013-08-22 08:13:00,
2013-08-22 04:14:00,74.3,69.8,30.05,SSW,209,3.0,7.0,86,0.00,,,0.00,meteohub,2013-08-22 08:14:00,
2013-08-22 04:15:00,74.3,69.8,30.05,SSW,206,7.0,8.0,86,0.00,,,0.00,meteohub,2013-08-22 08:15:00,
2013-08-22 04:16:00,74.3,69.8,30.05,WSW,247,5.0,8.0,86,0.00,,,0.00,meteohub,2013-08-22 08:16:00,
2013-08-22 04:18:00,74.3,69.8,30.05,SW,227,7.0,8.0,86,0.00,,,0.00,meteohub,2013-08-22 08:18:00,
2013-08-22 04:20:00,74.3,69.8,30.05,SW,222,5.0,8.0,86,0.00,,,0.00,meteohub,2013-08-22 08:20:00,
2013-08-22 04:21:00,74.5,70.0,30.05,SW,234,2.0,10.0,86,0.00,,,0.00,meteohub,2013-08-22 08:21:00,
2013-08-22 04:23:00,74.5,70.0,30.05,SSW,204,6.0,10.0,86,0.00,,,0.00,meteohub,2013-08-22 08:23:00,
2013-08-22 04:25:00,74.5,70.0,30.05,SW,230,5.0,10.0,86,0.00,,,0.00,meteohub,2013-08-22 08:25:00,
2013-08-22 04:26:00,74.5,70.0,30.05,WSW,238,4.0,10.0,86,0.00,,,0.00,meteohub,2013-08-22 08:26:00,
2013-08-22 04:27:00,74.5,70.0,30.05,SW,215,4.0,10.0,86,0.00,,,0.00,meteohub,2013-08-22 08:27:00,
2013-08-22 04:28:00,74.5,69.6,30.05,WSW,241,5.0,10.0,85,0.00,,,0.00,meteohub,2013-08-22 08:28:00,
2013-08-22 04:31:00,74.3,69.4,30.05,WSW,240,8.0,11.0,85,0.00,,,0.00,meteohub,2013-08-22 08:31:00,
2013-08-22 04:32:00,74.3,69.4,30.05,WSW,237,4.0,11.0,85,0.00,,,0.00,meteohub,2013-08-22 08:32:00,
2013-08-22 04:33:00,74.3,69.8,30.05,SW,234,3.0,11.0,86,0.00,,,0.00,meteohub,2013-08-22 08:33:00,
2013-08-22 04:36:00,74.3,69.8,30.05,SW,218,6.0,11.0,86,0.00,,,0.00,meteohub,2013-08-22 08:36:00,
2013-08-22 04:37:00,74.3,69.8,30.05,SW,217,4.0,11.0,86,0.00,,,0.00,meteohub,2013-08-22 08:37:00,
2013-08-22 04:38:00,74.3,69.8,30.05,WSW,248,4.0,11.0,86,0.00,,,0.00,meteohub,2013-08-22 08:38:00,
2013-08-22 04:41:00,74.1,70.0,30.05,SW,227,4.0,11.0,87,0.00,,,0.00,meteohub,2013-08-22 08:41:00,
2013-08-22 04:42:00,74.1,70.0,30.05,SW,219,4.0,11.0,87,0.00,,,0.00,meteohub,2013-08-22 08:42:00,
2013-08-22 04:43:00,74.1,70.0,30.05,WSW,244,3.0,11.0,87,0.00,,,0.00,meteohub,2013-08-22 08:43:00,
2013-08-22 04:44:00,74.1,70.0,30.05,WSW,242,5.0,11.0,87,0.00,,,0.00,meteohub,2013-08-22 08:44:00,
2013-08-22 04:46:00,74.1,70.0,30.04,WSW,246,4.0,9.0,87,0.00,,,0.00,meteohub,2013-08-22 08:46:00,
2013-08-22 04:47:00,74.1,70.0,30.05,SW,233,3.0,9.0,87,0.00,,,0.00,meteohub,2013-08-22 08:47:00,
2013-08-22 04:48:00,74.1,70.3,30.04,SW,233,1.0,9.0,88,0.00,,,0.00,meteohub,2013-08-22 08:48:00,
2013-08-22 04:49:00,74.1,70.3,30.04,SW,233,1.0,9.0,88,0.00,,,0.00,meteohub,2013-08-22 08:49:00,
2013-08-22 04:51:00,74.1,70.3,30.05,SW,221,1.0,9.0,88,0.00,,,0.00,meteohub,2013-08-22 08:51:00,
2013-08-22 04:53:00,74.1,70.3,30.04,SW,221,0.0,9.0,88,0.00,,,0.00,meteohub,2013-08-22 08:53:00,
2013-08-22 04:54:00,74.1,70.3,30.04,SW,221,2.0,9.0,88,0.00,,,0.00,meteohub,2013-08-22 08:54:00,
2013-08-22 04:56:00,74.1,70.3,30.04,SW,228,2.0,8.0,88,0.00,,,0.00,meteohub,2013-08-22 08:56:00,
2013-08-22 04:58:00,74.1,70.7,30.05,SW,227,2.0,8.0,89,0.00,,,0.00,meteohub,2013-08-22 08:58:00,
2013-08-22 04:59:00,74.1,70.7,30.04,SSW,205,3.0,8.0,89,0.00,,,0.00,meteohub,2013-08-22 08:59:00,
2013-08-22 05:00:00,74.1,70.7,30.04,SSW,205,3.0,8.0,89,0.00,,,0.00,meteohub,2013-08-22 09:00:00,
2013-08-22 05:01:00,73.9,70.5,30.04,SSW,212,1.0,6.0,89,0.00,,,0.00,meteohub,2013-08-22 09:01:00,
2013-08-22 05:03:00,73.9,70.5,30.04,SSW,207,2.0,6.0,89,0.00,,,0.00,meteohub,2013-08-22 09:03:00,
2013-08-22 05:04:00,73.8,70.3,30.04,SW,223,1.0,6.0,89,0.00,,,0.00,meteohub,2013-08-22 09:04:00,
2013-08-22 05:05:00,73.8,70.3,30.04,SW,229,1.0,6.0,89,0.00,,,0.00,meteohub,2013-08-22 09:05:00,
2013-08-22 05:07:00,73.8,70.3,30.04,SW,234,4.0,4.0,89,0.00,,,0.00,meteohub,2013-08-22 09:07:00,
2013-08-22 05:08:00,73.8,70.3,30.04,WSW,254,0.0,4.0,89,0.00,,,0.00,meteohub,2013-08-22 09:08:00,
2013-08-22 05:09:00,73.6,70.2,30.04,WSW,254,1.0,4.0,89,0.00,,,0.00,meteohub,2013-08-22 09:09:00,
2013-08-22 05:10:00,73.6,70.2,30.04,WSW,254,1.0,4.0,89,0.00,,,0.00,meteohub,2013-08-22 09:10:00,
2013-08-22 05:13:00,73.6,70.5,30.04,WSW,246,2.0,4.0,90,0.00,,,0.00,meteohub,2013-08-22 09:13:00,
2013-08-22 05:14:00,73.6,70.5,30.04,WSW,243,2.0,4.0,90,0.00,,,0.00,meteohub,2013-08-22 09:14:00,
2013-08-22 05:15:00,73.6,70.5,30.04,WSW,238,1.0,4.0,90,0.00,,,0.01,meteohub,2013-08-22 09:15:00,
2013-08-22 05:16:00,73.6,70.5,30.04,WSW,238,2.0,5.0,90,0.01,,,0.01,meteohub,2013-08-22 09:16:00,
2013-08-22 05:19:00,73.6,70.5,30.04,SW,236,2.0,5.0,90,0.01,,,0.01,meteohub,2013-08-22 09:19:00,
2013-08-22 05:20:00,73.6,70.5,30.04,SW,236,2.0,5.0,90,0.01,,,0.01,meteohub,2013-08-22 09:20:00,
2013-08-22 05:21:00,73.6,70.5,30.04,SW,236,1.0,5.0,90,0.01,,,0.01,meteohub,2013-08-22 09:21:00,
2013-08-22 05:24:00,73.4,70.5,30.04,WSW,250,2.0,5.0,91,0.01,,,0.01,meteohub,2013-08-22 09:24:00,
2013-08-22 05:25:00,73.4,70.5,30.03,WSW,244,5.0,5.0,91,0.01,,,0.01,meteohub,2013-08-22 09:25:00,
2013-08-22 05:26:00,73.4,70.5,30.03,WSW,238,2.0,5.0,91,0.01,,,0.01,meteohub,2013-08-22 09:26:00,
2013-08-22 05:29:00,73.4,70.5,30.04,WSW,237,5.0,5.0,91,0.01,,,0.01,meteohub,2013-08-22 09:29:00,
2013-08-22 05:30:00,73.4,70.5,30.04,SW,233,3.0,5.0,91,0.01,,,0.01,meteohub,2013-08-22 09:30:00,
2013-08-22 05:31:00,73.4,70.5,30.04,SW,225,4.0,7.0,91,0.01,,,0.01,meteohub,2013-08-22 09:31:00,
2013-08-22 05:34:00,73.6,70.7,30.04,WSW,253,5.0,7.0,91,0.01,,,0.01,meteohub,2013-08-22 09:34:00,
2013-08-22 05:36:00,73.4,70.5,30.04,South,190,3.0,9.0,91,0.01,,,0.01,meteohub,2013-08-22 09:36:00,
2013-08-22 05:37:00,73.6,70.7,30.04,SSW,207,3.0,9.0,91,0.01,,,0.01,meteohub,2013-08-22 09:37:00,
2013-08-22 05:41:00,73.4,70.5,30.03,SW,229,1.0,9.0,91,0.02,,,0.02,meteohub,2013-08-22 09:41:00,
2013-08-22 05:42:00,73.4,70.9,30.03,SSW,208,2.0,9.0,92,0.02,,,0.02,meteohub,2013-08-22 09:42:00,
2013-08-22 05:46:00,73.2,70.5,30.03,SW,225,3.0,9.0,91,0.02,,,0.02,meteohub,2013-08-22 09:46:00,
2013-08-22 05:47:00,73.2,70.5,30.04,SW,215,2.0,9.0,91,0.02,,,0.02,meteohub,2013-08-22 09:47:00,
2013-08-22 05:51:00,73.0,70.5,30.03,SSW,211,3.0,9.0,92,0.02,,,0.02,meteohub,2013-08-22 09:51:00,
2013-08-22 05:52:00,73.0,70.5,30.03,WSW,237,3.0,9.0,92,0.02,,,0.02,meteohub,2013-08-22 09:52:00,
2013-08-22 05:56:00,73.0,70.5,30.03,SSW,200,3.0,9.0,92,0.02,,,0.02,meteohub,2013-08-22 09:56:00,
2013-08-22 05:57:00,73.0,70.5,30.03,SSW,202,2.0,9.0,92,0.02,,,0.02,meteohub,2013-08-22 09:57:00,
2013-08-22 06:02:00,73.0,70.5,30.03,South,191,3.0,9.0,92,0.02,,,0.02,meteohub,2013-08-22 10:02:00,
2013-08-22 06:07:00,72.9,70.3,30.03,SSW,202,3.0,6.0,92,0.02,,,0.02,meteohub,2013-08-22 10:07:00,
2013-08-22 06:08:00,72.7,70.2,30.03,SW,219,3.0,6.0,92,0.02,,,0.02,meteohub,2013-08-22 10:08:00,
2013-08-22 06:12:00,72.7,70.2,30.03,SW,221,3.0,6.0,92,0.01,,,0.02,meteohub,2013-08-22 10:12:00,
2013-08-22 06:13:00,72.7,70.2,30.03,SW,217,2.0,6.0,92,0.01,,,0.02,meteohub,2013-08-22 10:13:00,
2013-08-22 06:17:00,72.7,70.5,30.03,SSW,211,2.0,8.0,93,0.01,,,0.02,meteohub,2013-08-22 10:17:00,
2013-08-22 06:18:00,72.7,70.5,30.03,SW,214,1.0,8.0,93,0.01,,,0.02,meteohub,2013-08-22 10:18:00,
2013-08-22 06:22:00,72.7,70.5,30.03,SSW,211,2.0,8.0,93,0.01,,,0.02,meteohub,2013-08-22 10:22:00,
2013-08-22 06:23:00,72.5,70.3,30.03,SSW,201,1.0,8.0,93,0.01,,,0.02,meteohub,2013-08-22 10:23:00,
2013-08-22 06:27:00,72.5,70.3,30.03,SSW,210,3.0,8.0,93,0.01,,,0.02,meteohub,2013-08-22 10:27:00,
2013-08-22 06:28:00,72.5,70.3,30.03,SW,218,2.0,8.0,93,0.01,,,0.02,meteohub,2013-08-22 10:28:00,
2013-08-22 06:29:00,72.5,70.3,30.03,SW,229,3.0,8.0,93,0.01,,,0.02,meteohub,2013-08-22 10:29:00,
2013-08-22 06:30:00,72.5,70.3,30.03,SW,219,2.0,8.0,93,0.01,,,0.02,meteohub,2013-08-22 10:30:00,
2013-08-22 06:32:00,72.5,70.3,30.03,WSW,244,2.0,6.0,93,0.01,,,0.02,meteohub,2013-08-22 10:32:00,
2013-08-22 06:33:00,72.5,70.3,30.03,SW,229,3.0,6.0,93,0.01,,,0.02,meteohub,2013-08-22 10:33:00,
2013-08-22 06:34:00,72.5,70.3,30.03,SSW,205,2.0,6.0,93,0.01,,,0.02,meteohub,2013-08-22 10:34:00,
2013-08-22 06:38:00,72.3,70.2,30.03,SW,224,2.0,6.0,93,0.01,,,0.02,meteohub,2013-08-22 10:38:00,
2013-08-22 06:39:00,72.3,70.5,30.03,SW,232,1.0,6.0,94,0.01,,,0.02,meteohub,2013-08-22 10:39:00,
2013-08-22 06:40:00,72.3,70.5,30.03,SW,227,0.0,6.0,94,0.00,,,0.02,meteohub,2013-08-22 10:40:00,
2013-08-22 06:43:00,72.3,70.5,30.03,SSW,205,3.0,6.0,94,0.00,,,0.02,meteohub,2013-08-22 10:43:00,
2013-08-22 06:44:00,72.3,70.5,30.03,SW,219,1.0,6.0,94,0.00,,,0.02,meteohub,2013-08-22 10:44:00,
2013-08-22 06:45:00,72.3,70.5,30.03,SW,219,1.0,6.0,94,0.00,,,0.02,meteohub,2013-08-22 10:45:00,
2013-08-22 06:46:00,72.3,70.5,30.03,SW,219,2.0,5.0,94,0.00,,,0.02,meteohub,2013-08-22 10:46:00,
2013-08-22 06:48:00,72.3,70.5,30.03,SW,219,1.0,5.0,94,0.00,,,0.02,meteohub,2013-08-22 10:48:00,
2013-08-22 06:50:00,72.3,70.5,30.03,SW,219,2.0,5.0,94,0.00,,,0.02,meteohub,2013-08-22 10:50:00,
2013-08-22 08:27:00,73.6,71.4,30.04,SSW,209,3.0,12.0,93,0.00,,,0.02,meteohub,2013-08-22 12:27:00,
2013-08-22 08:28:00,73.6,71.4,30.04,West,261,3.0,12.0,93,0.00,,,0.02,meteohub,2013-08-22 12:28:00,
2013-08-22 08:29:00,73.6,71.4,30.04,SSW,195,4.0,12.0,93,0.00,,,0.02,meteohub,2013-08-22 12:29:00,
2013-08-22 08:32:00,73.8,71.6,30.03,SW,225,4.0,12.0,93,0.00,,,0.02,meteohub,2013-08-22 12:32:00,
2013-08-22 08:33:00,73.8,71.6,30.03,SW,230,4.0,12.0,93,0.00,,,0.02,meteohub,2013-08-22 12:33:00,
2013-08-22 08:34:00,73.8,71.6,30.03,SSW,192,4.0,12.0,93,0.00,,,0.02,meteohub,2013-08-22 12:34:00,
2013-08-22 08:38:00,73.8,71.6,30.03,SW,232,3.0,9.0,93,0.00,,,0.02,meteohub,2013-08-22 12:38:00,
2013-08-22 08:39:00,73.8,71.6,30.03,WSW,242,6.0,9.0,93,0.00,,,0.02,meteohub,2013-08-22 12:39:00,
2013-08-22 08:43:00,73.8,71.6,30.03,SW,227,3.0,9.0,93,0.00,,,0.02,meteohub,2013-08-22 12:43:00,
2013-08-22 08:44:00,73.8,71.6,30.03,WSW,249,3.0,9.0,93,0.00,,,0.02,meteohub,2013-08-22 12:44:00,
2013-08-22 08:49:00,73.8,71.6,30.03,South,173,5.0,8.0,93,0.00,,,0.02,meteohub,2013-08-22 12:49:00,
2013-08-22 08:50:00,73.8,71.6,30.03,SW,227,2.0,8.0,93,0.00,,,0.02,meteohub,2013-08-22 12:50:00,
2013-08-22 08:54:00,73.9,71.4,30.03,WSW,242,3.0,8.0,92,0.00,,,0.02,meteohub,2013-08-22 12:54:00,
2013-08-22 08:55:00,73.9,71.4,30.03,WSW,243,3.0,8.0,92,0.00,,,0.02,meteohub,2013-08-22 12:55:00,
2013-08-22 08:59:00,73.9,71.4,30.03,SSW,207,5.0,12.0,92,0.00,,,0.02,meteohub,2013-08-22 12:59:00,
2013-08-22 09:00:00,73.9,71.4,30.03,SW,214,3.0,12.0,92,0.00,,,0.02,meteohub,2013-08-22 13:00:00,
2013-08-22 09:01:00,73.9,71.4,30.03,WSW,244,4.0,12.0,92,0.00,,,0.02,meteohub,2013-08-22 13:01:00,
2013-08-22 09:05:00,74.1,71.2,30.03,SSW,202,5.0,12.0,91,0.00,,,0.02,meteohub,2013-08-22 13:05:00,
2013-08-22 09:06:00,74.1,71.2,30.03,SW,230,3.0,12.0,91,0.00,,,0.02,meteohub,2013-08-22 13:06:00,
2013-08-22 09:07:00,74.1,71.2,30.03,SW,216,3.0,12.0,91,0.00,,,0.02,meteohub,2013-08-22 13:07:00,
2013-08-22 09:10:00,74.5,71.6,30.03,SW,219,6.0,12.0,91,0.00,,,0.02,meteohub,2013-08-22 13:10:00,
2013-08-22 09:11:00,74.5,71.6,30.03,SW,215,8.0,10.0,91,0.00,,,0.02,meteohub,2013-08-22 13:11:00,
2013-08-22 09:12:00,74.5,71.6,30.03,WSW,247,7.0,10.0,91,0.00,,,0.02,meteohub,2013-08-22 13:12:00,
2013-08-22 09:15:00,74.7,71.6,30.03,WSW,238,11.0,12.0,90,0.00,,,0.02,meteohub,2013-08-22 13:15:00,
2013-08-22 09:16:00,74.7,71.6,30.03,WSW,249,4.0,12.0,90,0.00,,,0.02,meteohub,2013-08-22 13:16:00,
2013-08-22 09:17:00,74.7,71.6,30.03,SW,231,10.0,12.0,90,0.00,,,0.02,meteohub,2013-08-22 13:17:00,
2013-08-22 09:18:00,74.7,71.6,30.03,West,281,4.0,12.0,90,0.00,,,0.02,meteohub,2013-08-22 13:18:00,
2013-08-22 09:21:00,74.8,71.8,30.03,SSW,205,4.0,12.0,90,0.00,,,0.02,meteohub,2013-08-22 13:21:00,
2013-08-22 09:22:00,74.8,71.8,30.03,SW,228,4.0,12.0,90,0.00,,,0.02,meteohub,2013-08-22 13:22:00,
2013-08-22 09:23:00,75.0,72.0,30.03,West,263,6.0,12.0,90,0.00,,,0.02,meteohub,2013-08-22 13:23:00,
2013-08-22 09:26:00,75.0,72.0,30.03,WSW,240,11.0,11.0,90,0.00,,,0.02,meteohub,2013-08-22 13:26:00,
2013-08-22 09:27:00,75.0,72.0,30.03,WSW,242,6.0,11.0,90,0.00,,,0.02,meteohub,2013-08-22 13:27:00,
2013-08-22 09:28:00,74.8,71.8,30.03,SSW,199,8.0,11.0,90,0.00,,,0.02,meteohub,2013-08-22 13:28:00,
2013-08-22 09:32:00,75.0,72.0,30.03,WSW,241,5.0,15.0,90,0.00,,,0.02,meteohub,2013-08-22 13:32:00,
2013-08-22 09:33:00,75.0,72.0,30.03,SW,223,4.0,15.0,90,0.00,,,0.02,meteohub,2013-08-22 13:33:00,
2013-08-22 09:34:00,75.0,72.0,30.03,SSW,209,8.0,15.0,90,0.00,,,0.02,meteohub,2013-08-22 13:34:00,
2013-08-22 09:37:00,75.0,72.0,30.03,SW,217,5.0,15.0,90,0.00,,,0.02,meteohub,2013-08-22 13:37:00,
2013-08-22 09:38:00,75.0,72.0,30.03,SSW,207,6.0,15.0,90,0.00,,,0.02,meteohub,2013-08-22 13:38:00,
2013-08-22 09:39:00,75.0,72.0,30.02,SW,235,6.0,15.0,90,0.00,,,0.02,meteohub,2013-08-22 13:39:00,
2013-08-22 09:42:00,75.0,72.0,30.02,SSW,205,7.0,14.0,90,0.00,,,0.02,meteohub,2013-08-22 13:42:00,
2013-08-22 09:44:00,75.0,72.0,30.02,SW,222,6.0,14.0,90,0.00,,,0.02,meteohub,2013-08-22 13:44:00,
2013-08-22 09:47:00,75.0,72.0,30.03,SW,235,9.0,14.0,90,0.00,,,0.02,meteohub,2013-08-22 13:47:00,
2013-08-22 09:48:00,75.0,72.0,30.02,SW,215,6.0,14.0,90,0.00,,,0.02,meteohub,2013-08-22 13:48:00,
2013-08-22 09:49:00,75.0,72.0,30.02,SSW,211,9.0,14.0,90,0.00,,,0.02,meteohub,2013-08-22 13:49:00,
2013-08-22 09:50:00,75.0,72.0,30.02,WSW,249,8.0,14.0,90,0.00,,,0.02,meteohub,2013-08-22 13:50:00,
2013-08-22 09:53:00,75.2,72.1,30.02,WSW,242,3.0,14.0,90,0.00,,,0.02,meteohub,2013-08-22 13:53:00,
2013-08-22 09:54:00,75.2,72.1,30.02,WSW,242,3.0,14.0,90,0.00,,,0.02,meteohub,2013-08-22 13:54:00,
2013-08-22 09:55:00,75.4,72.3,30.02,SW,218,9.0,14.0,90,0.00,,,0.02,meteohub,2013-08-22 13:55:00,
2013-08-22 09:58:00,75.4,72.3,30.02,SW,217,8.0,14.0,90,0.00,,,0.02,meteohub,2013-08-22 13:58:00,
2013-08-22 09:59:00,75.4,72.3,30.02,WSW,248,8.0,14.0,90,0.00,,,0.02,meteohub,2013-08-22 13:59:00,
2013-08-22 10:00:00,75.4,72.3,30.02,WSW,244,12.0,14.0,90,0.00,,,0.02,meteohub,2013-08-22 14:00:00,
2013-08-22 10:04:00,75.2,72.1,30.02,SW,217,5.0,14.0,90,0.00,,,0.02,meteohub,2013-08-22 14:04:00,
2013-08-22 10:05:00,75.2,72.1,30.02,WSW,244,7.0,14.0,90,0.00,,,0.02,meteohub,2013-08-22 14:05:00,
2013-08-22 10:09:00,75.4,72.3,30.02,WSW,257,7.0,14.0,90,0.00,,,0.02,meteohub,2013-08-22 14:09:00,
2013-08-22 10:10:00,75.4,72.0,30.01,SW,216,4.0,14.0,89,0.00,,,0.02,meteohub,2013-08-22 14:10:00,
2013-08-22 10:11:00,75.2,71.8,30.01,SW,235,7.0,14.0,89,0.00,,,0.02,meteohub,2013-08-22 14:11:00,
2013-08-22 10:12:00,75.2,71.8,30.01,SW,219,7.0,14.0,89,0.00,,,0.02,meteohub,2013-08-22 14:12:00,
2013-08-22 10:14:00,75.2,71.8,30.01,WSW,248,5.0,14.0,89,0.00,,,0.02,meteohub,2013-08-22 14:14:00,
2013-08-22 10:15:00,75.2,71.8,30.01,WSW,237,4.0,14.0,89,0.00,,,0.02,meteohub,2013-08-22 14:15:00,
2013-08-22 10:17:00,75.4,72.3,30.01,SW,226,6.0,14.0,90,0.00,,,0.02,meteohub,2013-08-22 14:17:00,
2013-08-22 10:20:00,75.4,72.0,30.01,SW,232,6.0,14.0,89,0.00,,,0.02,meteohub,2013-08-22 14:20:00,
2013-08-22 10:21:00,75.6,72.1,30.02,WSW,254,10.0,13.0,89,0.00,,,0.02,meteohub,2013-08-22 14:21:00,
2013-08-22 10:22:00,75.4,72.0,30.02,WSW,246,8.0,13.0,89,0.00,,,0.02,meteohub,2013-08-22 14:22:00,
2013-08-22 10:25:00,75.6,72.5,30.02,West,262,12.0,12.0,90,0.00,,,0.02,meteohub,2013-08-22 14:25:00,
2013-08-22 10:27:00,75.6,72.1,30.02,SW,227,10.0,12.0,89,0.00,,,0.02,meteohub,2013-08-22 14:27:00,
2013-08-22 10:28:00,75.6,72.1,30.01,SW,234,10.0,12.0,89,0.00,,,0.02,meteohub,2013-08-22 14:28:00,
2013-08-22 10:30:00,75.4,72.0,30.01,SW,235,6.0,13.0,89,0.00,,,0.02,meteohub,2013-08-22 14:30:00,
2013-08-22 10:31:00,75.6,72.1,30.01,WSW,243,5.0,13.0,89,0.00,,,0.02,meteohub,2013-08-22 14:31:00,
2013-08-22 10:32:00,75.6,72.5,30.01,WSW,258,6.0,13.0,90,0.00,,,0.02,meteohub,2013-08-22 14:32:00,
2013-08-22 10:33:00,75.6,72.5,30.01,SW,217,2.0,13.0,90,0.00,,,0.02,meteohub,2013-08-22 14:33:00,
2013-08-22 10:35:00,75.6,72.5,30.01,SSW,211,7.0,13.0,90,0.00,,,0.02,meteohub,2013-08-22 14:35:00,
2013-08-22 10:36:00,75.6,72.1,30.02,WSW,252,11.0,13.0,89,0.00,,,0.02,meteohub,2013-08-22 14:36:00,
2013-08-22 10:37:00,75.6,72.1,30.02,SW,235,7.0,13.0,89,0.00,,,0.02,meteohub,2013-08-22 14:37:00,
2013-08-22 10:38:00,75.6,72.5,30.01,SW,234,7.0,13.0,90,0.00,,,0.02,meteohub,2013-08-22 14:38:00,
2013-08-22 10:41:00,75.7,72.3,30.01,WSW,245,7.0,13.0,89,0.00,,,0.02,meteohub,2013-08-22 14:41:00,
2013-08-22 10:42:00,75.7,72.3,30.01,WSW,238,6.0,13.0,89,0.00,,,0.02,meteohub,2013-08-22 14:42:00,
2013-08-22 10:43:00,75.7,72.3,30.01,SW,222,7.0,13.0,89,0.00,,,0.02,meteohub,2013-08-22 14:43:00,
2013-08-22 10:44:00,75.7,72.3,30.01,SW,231,3.0,13.0,89,0.00,,,0.02,meteohub,2013-08-22 14:44:00,
2013-08-22 10:46:00,75.7,72.3,30.01,SW,230,4.0,11.0,89,0.00,,,0.02,meteohub,2013-08-22 14:46:00,
2013-08-22 10:47:00,75.7,72.3,30.01,SW,236,2.0,11.0,89,0.00,,,0.02,meteohub,2013-08-22 14:47:00,
2013-08-22 10:48:00,75.9,72.5,30.01,WSW,252,5.0,11.0,89,0.00,,,0.02,meteohub,2013-08-22 14:48:00,
2013-08-22 10:49:00,75.9,72.5,30.01,SW,223,2.0,11.0,89,0.00,,,0.02,meteohub,2013-08-22 14:49:00,
2013-08-22 10:50:00,75.9,72.5,30.01,WSW,239,6.0,11.0,89,0.00,,,0.02,meteohub,2013-08-22 14:50:00,
2013-08-22 10:52:00,75.9,72.5,30.01,SW,217,7.0,11.0,89,0.00,,,0.02,meteohub,2013-08-22 14:52:00,
2013-08-22 10:53:00,75.9,72.5,30.01,SW,232,8.0,11.0,89,0.00,,,0.02,meteohub,2013-08-22 14:53:00,
2013-08-22 10:54:00,75.9,72.5,30.01,SW,236,4.0,11.0,89,0.00,,,0.02,meteohub,2013-08-22 14:54:00,
2013-08-22 10:56:00,76.1,72.7,30.01,SSW,200,3.0,10.0,89,0.00,,,0.02,meteohub,2013-08-22 14:56:00,
2013-08-22 10:57:00,76.3,72.9,30.01,SW,219,3.0,10.0,89,0.00,,,0.02,meteohub,2013-08-22 14:57:00,
2013-08-22 10:58:00,76.3,72.5,30.01,SW,231,5.0,10.0,88,0.00,,,0.02,meteohub,2013-08-22 14:58:00,
2013-08-22 10:59:00,76.3,72.5,30.01,SW,236,5.0,10.0,88,0.00,,,0.02,meteohub,2013-08-22 14:59:00,
2013-08-22 11:01:00,76.3,72.5,30.01,SSW,204,4.0,10.0,88,0.00,,,0.02,meteohub,2013-08-22 15:01:00,
2013-08-22 11:03:00,76.3,72.5,30.01,WSW,255,5.0,10.0,88,0.00,,,0.02,meteohub,2013-08-22 15:03:00,
2013-08-22 11:04:00,76.3,72.5,30.01,SSW,202,5.0,10.0,88,0.00,,,0.02,meteohub,2013-08-22 15:04:00,
2013-08-22 11:06:00,76.5,72.7,30.01,SSW,202,5.0,10.0,88,0.00,,,0.02,meteohub,2013-08-22 15:06:00,
2013-08-22 11:08:00,76.5,72.7,30.01,SSW,210,5.0,10.0,88,0.00,,,0.02,meteohub,2013-08-22 15:08:00,
2013-08-22 11:09:00,76.5,72.7,30.01,SW,233,5.0,10.0,88,0.00,,,0.02,meteohub,2013-08-22 15:09:00,
2013-08-22 11:12:00,76.5,72.7,30.01,SW,223,2.0,10.0,88,0.00,,,0.02,meteohub,2013-08-22 15:12:00,
2013-08-22 11:13:00,76.5,72.3,30.01,South,184,6.0,10.0,87,0.00,,,0.02,meteohub,2013-08-22 15:13:00,
2013-08-22 11:15:00,76.6,72.5,30.01,SW,218,1.0,10.0,87,0.00,,,0.02,meteohub,2013-08-22 15:15:00,
2013-08-22 11:17:00,76.5,72.3,30.01,South,184,3.0,9.0,87,0.00,,,0.02,meteohub,2013-08-22 15:17:00,
2013-08-22 11:19:00,76.5,72.3,30.01,SSW,211,2.0,9.0,87,0.00,,,0.02,meteohub,2013-08-22 15:19:00,
2013-08-22 11:21:00,76.3,72.1,30.01,SSW,201,3.0,7.0,87,0.00,,,0.02,meteohub,2013-08-22 15:21:00,
2013-08-22 11:22:00,76.3,72.1,30.01,SSW,195,3.0,7.0,87,0.00,,,0.02,meteohub,2013-08-22 15:22:00,
2013-08-22 11:23:00,76.1,72.0,30.01,SSW,207,1.0,7.0,87,0.00,,,0.02,meteohub,2013-08-22 15:23:00,
2013-08-22 11:24:00,75.9,72.1,30.01,South,190,1.0,7.0,88,0.00,,,0.02,meteohub,2013-08-22 15:24:00,
2013-08-22 11:25:00,75.9,72.1,30.01,SW,215,2.0,7.0,88,0.00,,,0.02,meteohub,2013-08-22 15:25:00,
2013-08-22 11:26:00,75.9,72.1,30.01,South,178,2.0,6.0,88,0.00,,,0.02,meteohub,2013-08-22 15:26:00,
2013-08-22 11:27:00,75.9,72.1,30.01,SSE,162,4.0,6.0,88,0.00,,,0.02,meteohub,2013-08-22 15:27:00,
2013-08-22 11:29:00,75.7,72.0,30.02,SSW,198,5.0,6.0,88,0.00,,,0.02,meteohub,2013-08-22 15:29:00,
2013-08-22 11:30:00,75.7,72.0,30.01,South,172,2.0,6.0,88,0.00,,,0.02,meteohub,2013-08-22 15:30:00,
2013-08-22 11:31:00,75.7,72.0,30.01,South,175,2.0,6.0,88,0.00,,,0.02,meteohub,2013-08-22 15:31:00,
2013-08-22 11:33:00,75.6,72.1,30.01,SW,215,5.0,6.0,89,0.00,,,0.02,meteohub,2013-08-22 15:33:00,
2013-08-22 11:34:00,75.6,72.1,30.01,SSW,194,4.0,6.0,89,0.00,,,0.02,meteohub,2013-08-22 15:34:00,
2013-08-22 11:35:00,75.6,72.1,30.01,WSW,237,5.0,7.0,89,0.00,,,0.02,meteohub,2013-08-22 15:35:00,
2013-08-22 11:36:00,75.6,72.1,30.01,SSW,205,4.0,7.0,89,0.00,,,0.02,meteohub,2013-08-22 15:36:00,
2013-08-22 11:39:00,75.6,72.1,30.01,SW,229,5.0,7.0,89,0.00,,,0.02,meteohub,2013-08-22 15:39:00,
2013-08-22 11:40:00,75.6,72.5,30.01,South,180,6.0,8.0,90,0.00,,,0.02,meteohub,2013-08-22 15:40:00,
2013-08-22 11:42:00,75.6,72.5,30.02,South,179,3.0,8.0,90,0.00,,,0.02,meteohub,2013-08-22 15:42:00,
2013-08-22 11:44:00,75.6,72.5,30.02,South,169,6.0,8.0,90,0.00,,,0.02,meteohub,2013-08-22 15:44:00,
2013-08-22 11:45:00,75.6,72.5,30.01,SW,221,2.0,8.0,90,0.00,,,0.02,meteohub,2013-08-22 15:45:00,
2013-08-22 11:46:00,75.6,72.5,30.01,SSW,213,5.0,8.0,90,0.00,,,0.02,meteohub,2013-08-22 15:46:00,
2013-08-22 11:47:00,75.7,72.7,30.01,SSW,195,2.0,8.0,90,0.00,,,0.02,meteohub,2013-08-22 15:47:00,
2013-08-22 11:49:00,75.7,72.7,30.01,SW,217,3.0,8.0,90,0.00,,,0.02,meteohub,2013-08-22 15:49:00,
2013-08-22 11:50:00,75.7,72.7,30.01,South,185,2.0,8.0,90,0.00,,,0.02,meteohub,2013-08-22 15:50:00,
2013-08-22 11:52:00,75.9,72.9,30.01,SSW,200,6.0,8.0,90,0.00,,,0.02,meteohub,2013-08-22 15:52:00,
2013-08-22 11:55:00,76.1,72.9,30.01,South,171,5.0,8.0,90,0.00,,,0.02,meteohub,2013-08-22 15:55:00,
2013-08-22 11:57:00,75.9,72.5,30.01,South,177,3.0,9.0,89,0.00,,,0.02,meteohub,2013-08-22 15:57:00,
2013-08-22 11:58:00,75.9,72.5,30.01,SSW,209,3.0,9.0,89,0.00,,,0.02,meteohub,2013-08-22 15:58:00,
2013-08-22 12:01:00,75.9,72.5,30.01,SSE,168,4.0,9.0,89,0.00,,,0.02,meteohub,2013-08-22 16:01:00,
2013-08-22 12:02:00,75.9,72.5,30.01,SSE,159,7.0,9.0,89,0.00,,,0.02,meteohub,2013-08-22 16:02:00,
2013-08-22 12:03:00,75.9,72.5,30.01,South,172,3.0,9.0,89,0.00,,,0.02,meteohub,2013-08-22 16:03:00,
2013-08-22 12:05:00,75.9,72.5,30.01,SSW,202,5.0,10.0,89,0.00,,,0.02,meteohub,2013-08-22 16:05:00,
2013-08-22 12:07:00,75.9,72.1,30.01,South,186,5.0,10.0,88,0.00,,,0.02,meteohub,2013-08-22 16:07:00,
2013-08-22 12:08:00,75.9,72.1,30.01,WSW,245,4.0,10.0,88,0.00,,,0.02,meteohub,2013-08-22 16:08:00,
2013-08-22 12:11:00,75.9,72.5,30.01,South,190,6.0,10.0,89,0.00,,,0.02,meteohub,2013-08-22 16:11:00,
2013-08-22 12:13:00,75.9,72.5,30.00,WSW,253,4.0,10.0,89,0.00,,,0.02,meteohub,2013-08-22 16:13:00,
2013-08-22 12:16:00,75.9,72.1,30.00,SW,214,6.0,10.0,88,0.00,,,0.02,meteohub,2013-08-22 16:16:00,
2013-08-22 12:18:00,75.9,72.1,30.01,SSW,207,8.0,10.0,88,0.00,,,0.02,meteohub,2013-08-22 16:18:00,
2013-08-22 12:19:00,75.9,72.1,30.01,SSW,206,7.0,10.0,88,0.00,,,0.02,meteohub,2013-08-22 16:19:00,
2013-08-22 12:21:00,75.9,72.1,30.00,SSW,192,6.0,10.0,88,0.00,,,0.02,meteohub,2013-08-22 16:21:00,
2013-08-22 12:24:00,75.7,72.0,30.00,SW,225,3.0,10.0,88,0.00,,,0.02,meteohub,2013-08-22 16:24:00,
2013-08-22 12:26:00,75.9,72.1,30.00,SSW,197,4.0,11.0,88,0.00,,,0.02,meteohub,2013-08-22 16:26:00,
2013-08-22 12:27:00,75.9,72.1,30.00,SW,232,5.0,11.0,88,0.00,,,0.02,meteohub,2013-08-22 16:27:00,
2013-08-22 12:29:00,75.9,72.1,30.00,SSW,213,5.0,11.0,88,0.00,,,0.02,meteohub,2013-08-22 16:29:00,
2013-08-22 12:30:00,75.9,72.1,30.00,WSW,242,2.0,11.0,88,0.00,,,0.02,meteohub,2013-08-22 16:30:00,
2013-08-22 12:32:00,75.9,72.1,30.00,SW,232,8.0,11.0,88,0.00,,,0.02,meteohub,2013-08-22 16:32:00,
2013-08-22 12:34:00,75.9,71.8,30.00,SW,216,5.0,11.0,87,0.00,,,0.02,meteohub,2013-08-22 16:34:00,
2013-08-22 12:35:00,75.9,71.8,30.00,South,184,2.0,11.0,87,0.00,,,0.02,meteohub,2013-08-22 16:35:00,
2013-08-22 12:37:00,75.9,71.8,30.00,WSW,237,1.0,11.0,87,0.00,,,0.02,meteohub,2013-08-22 16:37:00,
2013-08-22 12:39:00,76.1,72.0,30.00,SSW,198,3.0,11.0,87,0.00,,,0.02,meteohub,2013-08-22 16:39:00,
2013-08-22 12:40:00,76.3,72.5,30.00,SSW,209,3.0,11.0,88,0.00,,,0.02,meteohub,2013-08-22 16:40:00,
2013-08-22 12:42:00,76.8,72.7,30.00,SW,230,6.0,11.0,87,0.00,,,0.02,meteohub,2013-08-22 16:42:00,
2013-08-22 12:43:00,76.8,72.7,30.00,SW,236,6.0,11.0,87,0.00,,,0.02,meteohub,2013-08-22 16:43:00,
2013-08-22 12:44:00,77.2,73.0,29.99,SSW,198,4.0,11.0,87,0.00,,,0.02,meteohub,2013-08-22 16:44:00,
2013-08-22 12:45:00,77.2,72.7,30.00,SW,219,2.0,11.0,86,0.00,,,0.02,meteohub,2013-08-22 16:45:00,
2013-08-22 12:46:00,77.4,72.9,29.99,WSW,247,5.0,11.0,86,0.00,,,0.02,meteohub,2013-08-22 16:46:00,
2013-08-22 12:48:00,77.7,73.2,29.99,SSW,208,4.0,11.0,86,0.00,,,0.02,meteohub,2013-08-22 16:48:00,
2013-08-22 12:50:00,78.3,73.4,29.99,WSW,238,8.0,12.0,85,0.00,,,0.02,meteohub,2013-08-22 16:50:00,
2013-08-22 12:52:00,78.4,73.2,29.99,SSW,211,8.0,12.0,84,0.00,,,0.02,meteohub,2013-08-22 16:52:00,
2013-08-22 12:53:00,78.4,73.2,29.99,SW,229,7.0,12.0,84,0.00,,,0.02,meteohub,2013-08-22 16:53:00,
2013-08-22 12:54:00,78.8,73.2,29.99,SSW,212,6.0,12.0,83,0.00,,,0.02,meteohub,2013-08-22 16:54:00,
2013-08-22 12:55:00,79.0,73.4,29.99,SSW,196,6.0,12.0,83,0.00,,,0.02,meteohub,2013-08-22 16:55:00,
2013-08-22 12:56:00,79.0,73.4,29.99,South,178,3.0,12.0,83,0.00,,,0.02,meteohub,2013-08-22 16:56:00,
2013-08-22 12:57:00,79.2,73.2,29.99,SW,220,5.0,12.0,82,0.00,,,0.02,meteohub,2013-08-22 16:57:00,
2013-08-22 12:58:00,79.2,73.2,29.99,SSW,209,5.0,12.0,82,0.00,,,0.02,meteohub,2013-08-22 16:58:00,
2013-08-22 13:00:00,79.2,72.9,29.99,SW,225,4.0,12.0,81,0.00,,,0.02,meteohub,2013-08-22 17:00:00,
2013-08-22 13:01:00,79.3,73.0,29.99,SW,219,4.0,12.0,81,0.00,,,0.02,meteohub,2013-08-22 17:01:00,
2013-08-22 13:03:00,79.3,72.7,29.99,SW,219,4.0,12.0,80,0.00,,,0.02,meteohub,2013-08-22 17:03:00,
2013-08-22 13:05:00,79.3,72.7,29.99,WSW,256,3.0,12.0,80,0.00,,,0.02,meteohub,2013-08-22 17:05:00,
2013-08-22 13:06:00,79.5,72.9,29.99,WSW,240,4.0,12.0,80,0.00,,,0.02,meteohub,2013-08-22 17:06:00,
2013-08-22 13:08:00,79.9,73.2,29.99,SW,236,9.0,12.0,80,0.00,,,0.02,meteohub,2013-08-22 17:08:00,
2013-08-22 13:10:00,79.9,72.9,29.99,South,178,10.0,12.0,79,0.00,,,0.02,meteohub,2013-08-22 17:10:00,
2013-08-22 13:12:00,80.1,73.0,29.99,SW,227,4.0,13.0,79,0.00,,,0.02,meteohub,2013-08-22 17:12:00,
2013-08-22 13:13:00,80.1,73.0,29.99,WSW,252,3.0,13.0,79,0.00,,,0.02,meteohub,2013-08-22 17:13:00,
2013-08-22 13:14:00,80.1,73.0,29.99,SW,220,4.0,13.0,79,0.00,,,0.02,meteohub,2013-08-22 17:14:00,
2013-08-22 13:15:00,80.2,73.0,29.99,SSW,212,7.0,13.0,79,0.00,,,0.02,meteohub,2013-08-22 17:15:00,
2013-08-22 13:18:00,80.2,73.0,29.99,SW,215,2.0,13.0,79,0.00,,,0.02,meteohub,2013-08-22 17:18:00,
2013-08-22 13:19:00,80.2,73.0,29.99,SSW,196,9.0,13.0,79,0.00,,,0.02,meteohub,2013-08-22 17:19:00,
2013-08-22 13:20:00,80.2,72.7,29.99,South,191,6.0,13.0,78,0.00,,,0.02,meteohub,2013-08-22 17:20:00,
2013-08-22 13:23:00,80.4,72.9,29.99,WSW,244,8.0,13.0,78,0.00,,,0.02,meteohub,2013-08-22 17:23:00,
2013-08-22 13:24:00,80.4,72.9,29.99,SSW,210,7.0,13.0,78,0.00,,,0.02,meteohub,2013-08-22 17:24:00,
2013-08-22 13:25:00,80.6,72.7,29.98,SW,215,4.0,11.0,77,0.00,,,0.02,meteohub,2013-08-22 17:25:00,
2013-08-22 13:26:00,80.6,72.7,29.98,SSW,212,11.0,11.0,77,0.00,,,0.02,meteohub,2013-08-22 17:26:00,
2013-08-22 13:28:00,80.4,72.5,29.98,SW,234,7.0,11.0,77,0.00,,,0.02,meteohub,2013-08-22 17:28:00,
2013-08-22 13:29:00,80.4,72.5,29.98,WSW,239,14.0,14.0,77,0.00,,,0.02,meteohub,2013-08-22 17:29:00,
2013-08-22 13:31:00,80.4,72.5,29.98,SSW,205,7.0,15.0,77,0.00,,,0.02,meteohub,2013-08-22 17:31:00,
2013-08-22 13:34:00,80.6,72.7,29.98,SSW,213,8.0,15.0,77,0.00,,,0.02,meteohub,2013-08-22 17:34:00,
2013-08-22 13:35:00,80.8,72.9,29.98,SSW,212,8.0,15.0,77,0.00,,,0.02,meteohub,2013-08-22 17:35:00,
2013-08-22 13:36:00,80.8,72.9,29.98,SW,220,7.0,15.0,77,0.00,,,0.02,meteohub,2013-08-22 17:36:00,
2013-08-22 13:39:00,80.8,72.5,29.98,WSW,241,5.0,15.0,76,0.00,,,0.02,meteohub,2013-08-22 17:39:00,
2013-08-22 13:40:00,80.8,72.5,29.98,SW,224,6.0,15.0,76,0.00,,,0.02,meteohub,2013-08-22 17:40:00,
2013-08-22 13:41:00,80.8,72.5,29.98,WSW,239,12.0,15.0,76,0.00,,,0.02,meteohub,2013-08-22 17:41:00,
2013-08-22 13:44:00,80.6,71.6,29.98,South,188,5.0,15.0,74,0.00,,,0.02,meteohub,2013-08-22 17:44:00,
2013-08-22 13:45:00,80.4,71.4,29.98,SW,229,6.0,12.0,74,0.00,,,0.02,meteohub,2013-08-22 17:45:00,
2013-08-22 13:46:00,80.4,71.4,29.98,WSW,245,7.0,12.0,74,0.00,,,0.02,meteohub,2013-08-22 17:46:00,
2013-08-22 13:47:00,80.4,71.4,29.98,WSW,253,9.0,12.0,74,0.00,,,0.02,meteohub,2013-08-22 17:47:00,
2013-08-22 13:49:00,80.2,71.2,29.97,WSW,244,7.0,12.0,74,0.00,,,0.02,meteohub,2013-08-22 17:49:00,
2013-08-22 13:50:00,80.2,71.2,29.98,WSW,239,9.0,14.0,74,0.00,,,0.02,meteohub,2013-08-22 17:50:00,
2013-08-22 13:52:00,80.2,71.2,29.97,WSW,242,9.0,14.0,74,0.00,,,0.02,meteohub,2013-08-22 17:52:00,
2013-08-22 13:54:00,80.2,71.2,29.97,SW,228,5.0,14.0,74,0.00,,,0.02,meteohub,2013-08-22 17:54:00,
2013-08-22 13:55:00,80.1,71.1,29.97,SW,225,4.0,14.0,74,0.00,,,0.02,meteohub,2013-08-22 17:55:00,
2013-08-22 13:57:00,80.2,71.6,29.97,SW,223,8.0,14.0,75,0.00,,,0.02,meteohub,2013-08-22 17:57:00,
2013-08-22 14:00:00,80.2,71.6,29.97,WSW,248,8.0,14.0,75,0.00,,,0.02,meteohub,2013-08-22 18:00:00,
2013-08-22 14:01:00,80.2,71.6,29.97,WSW,249,9.0,14.0,75,0.00,,,0.02,meteohub,2013-08-22 18:01:00,
2013-08-22 14:02:00,80.4,71.8,29.97,SSW,205,8.0,14.0,75,0.00,,,0.02,meteohub,2013-08-22 18:02:00,
2013-08-22 14:06:00,80.8,72.1,29.97,SW,230,8.0,14.0,75,0.00,,,0.02,meteohub,2013-08-22 18:06:00,
2013-08-22 14:07:00,80.8,71.8,29.97,WSW,246,9.0,14.0,74,0.00,,,0.02,meteohub,2013-08-22 18:07:00,
2013-08-22 14:11:00,81.3,72.3,29.97,SSW,205,3.0,16.0,74,0.00,,,0.02,meteohub,2013-08-22 18:11:00,
2013-08-22 14:12:00,81.3,72.3,29.97,SW,225,2.0,16.0,74,0.00,,,0.02,meteohub,2013-08-22 18:12:00,
2013-08-22 14:14:00,81.3,72.7,29.97,West,259,2.0,16.0,75,0.00,,,0.02,meteohub,2013-08-22 18:14:00,
2013-08-22 14:16:00,81.3,72.7,29.97,SW,232,6.0,16.0,75,0.00,,,0.02,meteohub,2013-08-22 18:16:00,
2013-08-22 14:17:00,81.3,72.7,29.96,SSW,194,7.0,16.0,75,0.00,,,0.02,meteohub,2013-08-22 18:17:00,
2013-08-22 14:19:00,81.1,72.5,29.96,South,187,5.0,16.0,75,0.00,,,0.02,meteohub,2013-08-22 18:19:00,
2013-08-22 14:21:00,80.4,72.1,29.96,South,188,8.0,16.0,76,0.00,,,0.02,meteohub,2013-08-22 18:21:00,
2013-08-22 14:22:00,80.4,72.1,29.96,SSW,206,6.0,16.0,76,0.00,,,0.02,meteohub,2013-08-22 18:22:00,
2013-08-22 14:23:00,80.2,72.3,29.96,SW,219,5.0,16.0,77,0.00,,,0.02,meteohub,2013-08-22 18:23:00,
2013-08-22 14:24:00,80.1,72.5,29.96,SSW,202,2.0,16.0,78,0.00,,,0.02,meteohub,2013-08-22 18:24:00,
2013-08-22 14:26:00,80.1,73.0,29.96,South,174,3.0,10.0,79,0.00,,,0.02,meteohub,2013-08-22 18:26:00,
2013-08-22 14:28:00,80.1,73.0,29.96,WSW,250,4.0,10.0,79,0.00,,,0.02,meteohub,2013-08-22 18:28:00,
2013-08-22 14:29:00,80.1,73.0,29.96,SSW,204,4.0,10.0,79,0.00,,,0.02,meteohub,2013-08-22 18:29:00,
2013-08-22 14:31:00,80.4,72.9,29.96,WSW,250,3.0,10.0,78,0.00,,,0.02,meteohub,2013-08-22 18:31:00,
2013-08-22 14:33:00,80.8,72.9,29.96,South,169,4.0,10.0,77,0.00,,,0.02,meteohub,2013-08-22 18:33:00,
2013-08-22 14:34:00,81.0,73.0,29.96,SSW,207,3.0,10.0,77,0.00,,,0.02,meteohub,2013-08-22 18:34:00,
2013-08-22 14:37:00,81.0,72.7,29.96,SSE,157,3.0,11.0,76,0.00,,,0.02,meteohub,2013-08-22 18:37:00,
2013-08-22 14:38:00,80.4,72.5,29.96,SSW,200,8.0,11.0,77,0.00,,,0.02,meteohub,2013-08-22 18:38:00,
2013-08-22 14:39:00,80.2,72.3,29.96,SSW,193,5.0,11.0,77,0.00,,,0.02,meteohub,2013-08-22 18:39:00,
2013-08-22 14:40:00,80.2,72.3,29.96,SSW,192,3.0,11.0,77,0.00,,,0.02,meteohub,2013-08-22 18:40:00,
2013-08-22 14:42:00,79.5,72.5,29.96,SSW,211,5.0,11.0,79,0.00,,,0.02,meteohub,2013-08-22 18:42:00,
2013-08-22 14:43:00,79.3,72.7,29.96,South,190,3.0,11.0,80,0.00,,,0.02,meteohub,2013-08-22 18:43:00,
2013-08-22 14:44:00,79.2,72.5,29.96,South,181,3.0,11.0,80,0.00,,,0.02,meteohub,2013-08-22 18:44:00,
2013-08-22 14:45:00,79.2,72.5,29.96,South,180,6.0,11.0,80,0.00,,,0.02,meteohub,2013-08-22 18:45:00,
2013-08-22 14:47:00,79.0,72.7,29.95,SW,232,6.0,11.0,81,0.00,,,0.02,meteohub,2013-08-22 18:47:00,
2013-08-22 14:50:00,78.6,72.3,29.95,SW,232,6.0,11.0,81,0.00,,,0.02,meteohub,2013-08-22 18:50:00,
2013-08-22 14:52:00,78.4,72.5,29.95,SSW,207,7.0,13.0,82,0.00,,,0.02,meteohub,2013-08-22 18:52:00,
2013-08-22 14:55:00,78.3,72.7,29.95,South,171,5.0,13.0,83,0.00,,,0.02,meteohub,2013-08-22 18:55:00,
2013-08-22 14:58:00,78.1,72.5,29.95,South,173,7.0,13.0,83,0.00,,,0.02,meteohub,2013-08-22 18:58:00,
2013-08-22 15:00:00,78.1,72.5,29.95,South,183,10.0,13.0,83,0.00,,,0.02,meteohub,2013-08-22 19:00:00,
2013-08-22 15:01:00,78.1,72.5,29.95,South,182,8.0,13.0,83,0.00,,,0.02,meteohub,2013-08-22 19:01:00,
2013-08-22 15:03:00,78.1,72.5,29.94,SSW,212,9.0,13.0,83,0.00,,,0.02,meteohub,2013-08-22 19:03:00,
2013-08-22 15:05:00,78.1,72.5,29.94,SSW,198,5.0,13.0,83,0.00,,,0.02,meteohub,2013-08-22 19:05:00,
2013-08-22 15:06:00,78.1,72.5,29.94,SSW,212,9.0,13.0,83,0.00,,,0.02,meteohub,2013-08-22 19:06:00,
2013-08-22 15:07:00,78.1,72.5,29.94,SW,223,4.0,13.0,83,0.00,,,0.02,meteohub,2013-08-22 19:07:00,
2013-08-22 15:08:00,78.1,72.9,29.94,SSW,213,6.0,13.0,84,0.00,,,0.02,meteohub,2013-08-22 19:08:00,
2013-08-22 15:11:00,78.1,72.5,29.94,SW,234,7.0,11.0,83,0.00,,,0.02,meteohub,2013-08-22 19:11:00,
2013-08-22 15:12:00,77.9,72.7,29.94,South,178,7.0,11.0,84,0.00,,,0.02,meteohub,2013-08-22 19:12:00,
2013-08-22 15:13:00,77.7,72.5,29.94,South,188,5.0,11.0,84,0.00,,,0.02,meteohub,2013-08-22 19:13:00,
2013-08-22 15:16:00,77.7,72.5,29.94,SSE,168,10.0,11.0,84,0.00,,,0.02,meteohub,2013-08-22 19:16:00,
2013-08-22 15:17:00,77.7,72.5,29.94,South,186,11.0,11.0,84,0.00,,,0.02,meteohub,2013-08-22 19:17:00,
2013-08-22 15:19:00,77.7,72.9,29.94,SSW,196,7.0,11.0,85,0.00,,,0.02,meteohub,2013-08-22 19:19:00,
2013-08-22 15:21:00,77.7,72.5,29.94,SSW,192,7.0,11.0,84,0.00,,,0.02,meteohub,2013-08-22 19:21:00,
2013-08-22 15:22:00,77.7,72.9,29.94,SSW,193,7.0,11.0,85,0.00,,,0.02,meteohub,2013-08-22 19:22:00,
2013-08-22 15:23:00,77.7,72.5,29.94,SSW,192,7.0,11.0,84,0.00,,,0.02,meteohub,2013-08-22 19:23:00,
2013-08-22 15:24:00,77.7,72.5,29.94,SSE,158,10.0,11.0,84,0.00,,,0.02,meteohub,2013-08-22 19:24:00,
2013-08-22 15:26:00,77.5,72.3,29.93,South,188,9.0,12.0,84,0.00,,,0.02,meteohub,2013-08-22 19:26:00,
2013-08-22 15:28:00,77.5,72.7,29.94,SSW,198,9.0,12.0,85,0.00,,,0.02,meteohub,2013-08-22 19:28:00,
2013-08-22 15:29:00,77.5,72.7,29.93,SSE,167,5.0,12.0,85,0.00,,,0.02,meteohub,2013-08-22 19:29:00,
2013-08-22 15:31:00,77.5,72.7,29.93,SSE,161,7.0,12.0,85,0.00,,,0.02,meteohub,2013-08-22 19:31:00,
2013-08-22 15:32:00,77.5,72.7,29.93,SSW,198,5.0,12.0,85,0.00,,,0.02,meteohub,2013-08-22 19:32:00,
2013-08-22 15:33:00,77.5,72.7,29.93,SSW,197,6.0,12.0,85,0.00,,,0.02,meteohub,2013-08-22 19:33:00,
2013-08-22 15:34:00,77.5,72.7,29.93,South,178,6.0,12.0,85,0.00,,,0.02,meteohub,2013-08-22 19:34:00,
2013-08-22 15:37:00,77.4,72.5,29.93,South,179,9.0,12.0,85,0.00,,,0.02,meteohub,2013-08-22 19:37:00,
2013-08-22 15:38:00,77.4,72.5,29.93,South,188,8.0,12.0,85,0.00,,,0.02,meteohub,2013-08-22 19:38:00,
2013-08-22 15:39:00,77.5,73.0,29.93,SSW,205,6.0,12.0,86,0.00,,,0.02,meteohub,2013-08-22 19:39:00,
2013-08-22 15:40:00,77.5,73.0,29.93,SW,220,7.0,12.0,86,0.00,,,0.02,meteohub,2013-08-22 19:40:00,
2013-08-22 15:42:00,77.7,72.9,29.92,South,191,5.0,12.0,85,0.00,,,0.02,meteohub,2013-08-22 19:42:00,
2013-08-22 15:45:00,77.5,72.7,29.93,SSW,212,10.0,12.0,85,0.00,,,0.02,meteohub,2013-08-22 19:45:00,
2013-08-22 15:46:00,77.5,72.7,29.92,SSW,207,5.0,13.0,85,0.00,,,0.02,meteohub,2013-08-22 19:46:00,
2013-08-22 15:47:00,77.7,72.9,29.92,SW,228,3.0,13.0,85,0.00,,,0.02,meteohub,2013-08-22 19:47:00,
2013-08-22 15:50:00,78.1,73.2,29.92,SSW,211,4.0,13.0,85,0.00,,,0.02,meteohub,2013-08-22 19:50:00,
2013-08-22 15:51:00,78.1,73.2,29.92,SSW,213,2.0,13.0,85,0.00,,,0.02,meteohub,2013-08-22 19:51:00,
2013-08-22 15:52:00,78.3,73.4,29.92,SW,214,3.0,13.0,85,0.00,,,0.02,meteohub,2013-08-22 19:52:00,
2013-08-22 15:53:00,78.3,73.4,29.92,South,189,6.0,13.0,85,0.00,,,0.02,meteohub,2013-08-22 19:53:00,
2013-08-22 15:55:00,78.3,73.0,29.92,SW,221,5.0,13.0,84,0.00,,,0.02,meteohub,2013-08-22 19:55:00,
2013-08-22 15:56:00,78.3,73.0,29.92,South,177,10.0,13.0,84,0.00,,,0.02,meteohub,2013-08-22 19:56:00,
2013-08-22 15:57:00,78.1,72.9,29.92,SSE,158,6.0,13.0,84,0.00,,,0.02,meteohub,2013-08-22 19:57:00,
2013-08-22 15:58:00,78.1,72.9,29.92,SSW,192,5.0,13.0,84,0.00,,,0.02,meteohub,2013-08-22 19:58:00,
2013-08-22 16:01:00,78.3,73.4,29.92,SSW,196,4.0,16.0,85,0.00,,,0.02,meteohub,2013-08-22 20:01:00,
2013-08-22 16:03:00,78.3,73.4,29.92,SSW,211,5.0,16.0,85,0.00,,,0.02,meteohub,2013-08-22 20:03:00,
2013-08-22 16:04:00,78.3,73.4,29.92,SSW,211,4.0,16.0,85,0.00,,,0.02,meteohub,2013-08-22 20:04:00,
2013-08-22 16:06:00,78.4,73.2,29.92,SSW,213,6.0,16.0,84,0.00,,,0.02,meteohub,2013-08-22 20:06:00,
2013-08-22 16:08:00,78.6,73.4,29.92,SW,235,7.0,16.0,84,0.00,,,0.02,meteohub,2013-08-22 20:08:00,
2013-08-22 16:09:00,78.4,73.2,29.92,SSW,193,6.0,16.0,84,0.00,,,0.02,meteohub,2013-08-22 20:09:00,
2013-08-22 16:12:00,78.4,73.2,29.91,SW,236,10.0,16.0,84,0.00,,,0.02,meteohub,2013-08-22 20:12:00,
2013-08-22 16:13:00,78.4,73.2,29.91,SSW,205,4.0,16.0,84,0.00,,,0.02,meteohub,2013-08-22 20:13:00,
2013-08-22 16:14:00,78.6,73.4,29.91,South,180,5.0,16.0,84,0.00,,,0.02,meteohub,2013-08-22 20:14:00,
2013-08-22 16:17:00,78.4,73.2,29.91,SSW,194,4.0,13.0,84,0.00,,,0.02,meteohub,2013-08-22 20:17:00,
2013-08-22 16:19:00,78.4,73.2,29.91,SSW,205,7.0,13.0,84,0.00,,,0.02,meteohub,2013-08-22 20:19:00,
2013-08-22 16:20:00,78.4,73.2,29.91,SSW,200,5.0,13.0,84,0.00,,,0.02,meteohub,2013-08-22 20:20:00,
2013-08-22 16:22:00,78.3,73.0,29.91,South,190,6.0,13.0,84,0.00,,,0.02,meteohub,2013-08-22 20:22:00,
2013-08-22 16:24:00,78.1,72.9,29.91,SSW,197,6.0,13.0,84,0.00,,,0.02,meteohub,2013-08-22 20:24:00,
2013-08-22 16:25:00,78.1,73.2,29.91,SSW,205,6.0,13.0,85,0.00,,,0.02,meteohub,2013-08-22 20:25:00,
2013-08-22 16:28:00,78.1,73.2,29.91,SSW,207,9.0,13.0,85,0.00,,,0.02,meteohub,2013-08-22 20:28:00,
2013-08-22 16:29:00,78.3,73.4,29.91,South,190,4.0,13.0,85,0.00,,,0.02,meteohub,2013-08-22 20:29:00,
2013-08-22 16:30:00,78.3,73.4,29.91,SW,225,3.0,13.0,85,0.00,,,0.02,meteohub,2013-08-22 20:30:00,
2013-08-22 16:31:00,78.3,73.4,29.91,SSW,205,3.0,13.0,85,0.00,,,0.02,meteohub,2013-08-22 20:31:00,
2013-08-22 16:34:00,78.4,73.6,29.91,SSW,202,8.0,13.0,85,0.00,,,0.02,meteohub,2013-08-22 20:34:00,
2013-08-22 16:35:00,78.4,73.2,29.91,SSW,192,5.0,13.0,84,0.00,,,0.02,meteohub,2013-08-22 20:35:00,
2013-08-22 16:36:00,78.3,73.0,29.92,SSW,205,9.0,13.0,84,0.00,,,0.02,meteohub,2013-08-22 20:36:00,
2013-08-22 16:40:00,77.5,72.7,29.92,WSW,247,4.0,13.0,85,0.00,,,0.02,meteohub,2013-08-22 20:40:00,
2013-08-22 16:41:00,77.5,72.7,29.91,SSW,197,6.0,13.0,85,0.00,,,0.02,meteohub,2013-08-22 20:41:00,
2013-08-22 16:45:00,77.2,72.7,29.91,SW,229,6.0,13.0,86,0.00,,,0.02,meteohub,2013-08-22 20:45:00,
2013-08-22 16:46:00,77.0,72.5,29.91,South,176,10.0,12.0,86,0.00,,,0.02,meteohub,2013-08-22 20:46:00,
2013-08-22 16:47:00,76.8,72.3,29.92,WSW,239,9.0,12.0,86,0.00,,,0.02,meteohub,2013-08-22 20:47:00,
2013-08-22 16:50:00,76.6,72.5,29.92,SSW,202,5.0,12.0,87,0.00,,,0.02,meteohub,2013-08-22 20:50:00,
2013-08-22 16:51:00,76.6,72.5,29.92,South,188,6.0,11.0,87,0.00,,,0.02,meteohub,2013-08-22 20:51:00,
2013-08-22 16:52:00,76.6,72.5,29.92,WSW,244,3.0,11.0,87,0.00,,,0.02,meteohub,2013-08-22 20:52:00,
2013-08-22 16:55:00,76.8,73.0,29.92,WSW,238,4.0,11.0,88,0.00,,,0.02,meteohub,2013-08-22 20:55:00,
2013-08-22 16:56:00,76.8,73.0,29.92,SW,217,3.0,10.0,88,0.00,,,0.02,meteohub,2013-08-22 20:56:00,
2013-08-22 16:57:00,76.8,73.4,29.92,SW,221,5.0,10.0,89,0.00,,,0.02,meteohub,2013-08-22 20:57:00,
2013-08-22 17:00:00,77.0,73.6,29.91,South,171,1.0,10.0,89,0.00,,,0.02,meteohub,2013-08-22 21:00:00,
2013-08-22 17:01:00,77.2,73.8,29.91,SSW,208,3.0,10.0,89,0.00,,,0.02,meteohub,2013-08-22 21:01:00,
2013-08-22 17:02:00,77.2,73.9,29.92,WSW,254,4.0,10.0,90,0.00,,,0.02,meteohub,2013-08-22 21:02:00,
2013-08-22 17:05:00,77.5,74.1,29.91,WSW,246,9.0,10.0,89,0.00,,,0.02,meteohub,2013-08-22 21:05:00,
2013-08-22 17:06:00,77.5,74.1,29.91,SSW,196,6.0,10.0,89,0.00,,,0.02,meteohub,2013-08-22 21:06:00,
2013-08-22 17:07:00,77.7,74.5,29.91,WSW,240,8.0,10.0,90,0.00,,,0.02,meteohub,2013-08-22 21:07:00,
2013-08-22 17:08:00,77.7,74.3,29.91,WSW,246,9.0,10.0,89,0.00,,,0.02,meteohub,2013-08-22 21:08:00,
2013-08-22 17:11:00,77.7,74.3,29.91,WSW,246,8.0,10.0,89,0.00,,,0.02,meteohub,2013-08-22 21:11:00,
2013-08-22 17:12:00,77.7,74.3,29.91,SW,236,9.0,10.0,89,0.00,,,0.02,meteohub,2013-08-22 21:12:00,
2013-08-22 17:14:00,77.5,73.8,29.91,WNW,292,9.0,10.0,88,0.00,,,0.02,meteohub,2013-08-22 21:14:00,
2013-08-22 17:16:00,77.4,73.6,29.91,West,280,6.0,12.0,88,0.00,,,0.02,meteohub,2013-08-22 21:16:00,
2013-08-22 17:17:00,77.4,73.2,29.91,WNW,284,1.0,12.0,87,0.00,,,0.02,meteohub,2013-08-22 21:17:00,
2013-08-22 17:18:00,77.4,73.2,29.91,West,273,3.0,12.0,87,0.00,,,0.02,meteohub,2013-08-22 21:18:00,
2013-08-22 17:19:00,77.2,73.0,29.91,West,274,6.0,12.0,87,0.00,,,0.02,meteohub,2013-08-22 21:19:00,
2013-08-22 17:21:00,77.0,72.1,29.90,West,273,1.0,12.0,85,0.00,,,0.02,meteohub,2013-08-22 21:21:00,
2013-08-22 17:22:00,77.0,72.1,29.90,WSW,246,4.0,12.0,85,0.00,,,0.02,meteohub,2013-08-22 21:22:00,
2013-08-22 17:23:00,76.8,72.0,29.90,WNW,286,3.0,12.0,85,0.00,,,0.02,meteohub,2013-08-22 21:23:00,
2013-08-22 17:24:00,76.6,71.8,29.89,WNW,290,2.0,12.0,85,0.00,,,0.02,meteohub,2013-08-22 21:24:00,
2013-08-22 17:27:00,76.5,71.2,29.89,WNW,284,0.0,12.0,84,0.00,,,0.02,meteohub,2013-08-22 21:27:00,
2013-08-22 17:28:00,76.3,71.4,29.88,North,355,0.0,12.0,85,0.00,,,0.02,meteohub,2013-08-22 21:28:00,
2013-08-22 17:29:00,76.3,71.4,29.88,North,355,0.0,12.0,85,0.00,,,0.02,meteohub,2013-08-22 21:29:00,
2013-08-22 17:32:00,76.1,70.9,29.88,WSW,240,4.0,10.0,84,0.00,,,0.02,meteohub,2013-08-22 21:32:00,
2013-08-22 17:33:00,76.1,70.9,29.88,WSW,250,3.0,10.0,84,0.00,,,0.02,meteohub,2013-08-22 21:33:00,
2013-08-22 17:34:00,75.9,70.7,29.88,SW,234,6.0,10.0,84,0.00,,,0.02,meteohub,2013-08-22 21:34:00,
2013-08-22 17:36:00,75.9,70.7,29.88,WNW,289,3.0,9.0,84,0.00,,,0.02,meteohub,2013-08-22 21:36:00,
2013-08-22 17:38:00,75.9,71.1,29.88,WSW,246,4.0,9.0,85,0.00,,,0.02,meteohub,2013-08-22 21:38:00,
2013-08-22 17:39:00,75.9,71.1,29.88,West,259,6.0,9.0,85,0.00,,,0.02,meteohub,2013-08-22 21:39:00,
2013-08-22 17:40:00,75.9,71.1,29.88,West,262,4.0,9.0,85,0.00,,,0.02,meteohub,2013-08-22 21:40:00,
2013-08-22 17:42:00,75.9,70.7,29.88,WNW,292,4.0,9.0,84,0.00,,,0.02,meteohub,2013-08-22 21:42:00,
2013-08-22 17:43:00,75.7,70.5,29.88,WNW,300,2.0,9.0,84,0.00,,,0.02,meteohub,2013-08-22 21:43:00,
2013-08-22 17:45:00,75.7,70.9,29.88,West,275,3.0,9.0,85,0.00,,,0.02,meteohub,2013-08-22 21:45:00,
2013-08-22 17:48:00,75.7,70.9,29.88,WNW,283,1.0,13.0,85,0.00,,,0.02,meteohub,2013-08-22 21:48:00,
2013-08-22 17:49:00,75.7,70.9,29.88,WNW,292,4.0,13.0,85,0.00,,,0.02,meteohub,2013-08-22 21:49:00,
2013-08-22 17:50:00,75.7,70.9,29.88,West,275,1.0,13.0,85,0.00,,,0.02,meteohub,2013-08-22 21:50:00,
2013-08-22 17:51:00,75.7,70.5,29.88,West,275,1.0,13.0,84,0.00,,,0.02,meteohub,2013-08-22 21:51:00,
2013-08-22 17:53:00,75.7,70.5,29.88,WSW,249,7.0,13.0,84,0.00,,,0.02,meteohub,2013-08-22 21:53:00,
2013-08-22 17:54:00,75.7,70.5,29.88,SW,229,5.0,13.0,84,0.00,,,0.02,meteohub,2013-08-22 21:54:00,
2013-08-22 17:55:00,75.7,70.2,29.88,WSW,242,5.0,13.0,83,0.00,,,0.02,meteohub,2013-08-22 21:55:00,
2013-08-22 17:56:00,75.7,70.2,29.88,WSW,250,4.0,13.0,83,0.00,,,0.02,meteohub,2013-08-22 21:56:00,
2013-08-22 17:58:00,75.7,70.2,29.88,WSW,244,3.0,13.0,83,0.00,,,0.02,meteohub,2013-08-22 21:58:00,
2013-08-22 17:59:00,75.7,70.2,29.88,WSW,240,3.0,13.0,83,0.00,,,0.02,meteohub,2013-08-22 21:59:00,
2013-08-22 18:01:00,75.9,70.3,29.88,WSW,258,3.0,10.0,83,0.00,,,0.02,meteohub,2013-08-22 22:01:00,
2013-08-22 18:04:00,75.7,69.8,29.89,WSW,239,6.0,10.0,82,0.00,,,0.02,meteohub,2013-08-22 22:04:00,
2013-08-22 18:06:00,75.6,69.6,29.89,SW,223,6.0,12.0,82,0.00,,,0.02,meteohub,2013-08-22 22:06:00,
2013-08-22 18:07:00,75.4,69.8,29.89,West,261,8.0,12.0,83,0.00,,,0.02,meteohub,2013-08-22 22:07:00,
2013-08-22 18:09:00,75.0,69.8,29.90,WSW,254,9.0,12.0,84,0.00,,,0.02,meteohub,2013-08-22 22:09:00,
2013-08-22 18:11:00,74.7,69.8,29.90,West,265,10.0,15.0,85,0.00,,,0.02,meteohub,2013-08-22 22:11:00,
2013-08-22 18:12:00,74.5,69.6,29.91,SW,216,9.0,15.0,85,0.00,,,0.02,meteohub,2013-08-22 22:12:00,
2013-08-22 18:14:00,74.3,69.8,29.91,West,261,7.0,15.0,86,0.00,,,0.02,meteohub,2013-08-22 22:14:00,
2013-08-22 18:15:00,74.1,69.6,29.91,WSW,246,13.0,15.0,86,0.00,,,0.02,meteohub,2013-08-22 22:15:00,
2013-08-22 18:16:00,73.9,69.4,29.91,WNW,292,4.0,17.0,86,0.00,,,0.02,meteohub,2013-08-22 22:16:00,
2013-08-22 18:17:00,73.9,69.4,29.90,West,272,8.0,17.0,86,0.00,,,0.02,meteohub,2013-08-22 22:17:00,
2013-08-22 18:19:00,73.9,69.4,29.90,West,275,12.0,17.0,86,0.00,,,0.02,meteohub,2013-08-22 22:19:00,
2013-08-22 18:20:00,73.9,69.4,29.90,West,275,6.0,17.0,86,0.00,,,0.02,meteohub,2013-08-22 22:20:00,
2013-08-22 18:21:00,73.9,69.4,29.90,WNW,289,10.0,17.0,86,0.00,,,0.02,meteohub,2013-08-22 22:21:00,
2013-08-22 18:22:00,73.8,69.3,29.90,West,279,4.0,17.0,86,0.00,,,0.02,meteohub,2013-08-22 22:22:00,
2013-08-22 18:24:00,73.8,69.6,29.90,WSW,258,3.0,17.0,87,0.00,,,0.02,meteohub,2013-08-22 22:24:00,
2013-08-22 18:26:00,73.9,69.8,29.91,WSW,238,5.0,17.0,87,0.00,,,0.02,meteohub,2013-08-22 22:26:00,
2013-08-22 18:27:00,73.9,69.8,29.91,WSW,240,5.0,17.0,87,0.00,,,0.02,meteohub,2013-08-22 22:27:00,
2013-08-22 18:28:00,73.9,69.8,29.91,WSW,256,12.0,17.0,87,0.00,,,0.02,meteohub,2013-08-22 22:28:00,
2013-08-22 18:29:00,73.9,69.8,29.90,SW,236,6.0,17.0,87,0.00,,,0.02,meteohub,2013-08-22 22:29:00,
2013-08-22 18:31:00,73.9,69.8,29.90,WSW,246,4.0,14.0,87,0.00,,,0.02,meteohub,2013-08-22 22:31:00,
2013-08-22 18:32:00,73.9,69.8,29.90,WSW,244,8.0,14.0,87,0.00,,,0.02,meteohub,2013-08-22 22:32:00,
2013-08-22 18:33:00,73.9,69.8,29.90,West,267,12.0,14.0,87,0.00,,,0.02,meteohub,2013-08-22 22:33:00,
2013-08-22 18:34:00,73.9,69.8,29.90,SW,236,12.0,14.0,87,0.00,,,0.02,meteohub,2013-08-22 22:34:00,
2013-08-22 18:36:00,73.8,69.3,29.90,SW,234,5.0,14.0,86,0.00,,,0.02,meteohub,2013-08-22 22:36:00,
2013-08-22 18:37:00,73.9,69.8,29.90,WSW,249,10.0,14.0,87,0.00,,,0.02,meteohub,2013-08-22 22:37:00,
2013-08-22 18:38:00,73.9,69.8,29.90,SW,235,6.0,14.0,87,0.00,,,0.02,meteohub,2013-08-22 22:38:00,
2013-08-22 18:39:00,73.8,69.3,29.90,SW,227,7.0,14.0,86,0.00,,,0.02,meteohub,2013-08-22 22:39:00,
2013-08-22 18:42:00,73.8,69.3,29.89,WSW,254,7.0,12.0,86,0.00,,,0.02,meteohub,2013-08-22 22:42:00,
2013-08-22 18:43:00,73.8,69.3,29.89,WSW,238,4.0,12.0,86,0.00,,,0.02,meteohub,2013-08-22 22:43:00,
2013-08-22 18:44:00,73.8,68.9,29.89,West,271,4.0,12.0,85,0.00,,,0.02,meteohub,2013-08-22 22:44:00,
2013-08-22 18:47:00,73.9,69.4,29.89,WSW,247,2.0,12.0,86,0.00,,,0.02,meteohub,2013-08-22 22:47:00,
2013-08-22 18:48:00,73.9,69.4,29.89,WSW,247,3.0,12.0,86,0.00,,,0.02,meteohub,2013-08-22 22:48:00,
2013-08-22 18:49:00,73.9,69.4,29.89,WSW,247,3.0,12.0,86,0.00,,,0.02,meteohub,2013-08-22 22:49:00,
2013-08-22 18:50:00,74.1,69.6,29.89,WSW,248,0.0,12.0,86,0.00,,,0.02,meteohub,2013-08-22 22:50:00,
2013-08-22 18:52:00,74.1,69.6,29.89,WSW,243,4.0,12.0,86,0.00,,,0.02,meteohub,2013-08-22 22:52:00,
2013-08-22 18:53:00,74.3,69.4,29.90,WSW,242,5.0,12.0,85,0.00,,,0.02,meteohub,2013-08-22 22:53:00,
2013-08-22 18:54:00,74.5,69.6,29.90,SW,228,6.0,12.0,85,0.00,,,0.02,meteohub,2013-08-22 22:54:00,
2013-08-22 18:55:00,74.5,69.6,29.90,WSW,252,5.0,11.0,85,0.00,,,0.02,meteohub,2013-08-22 22:55:00,
2013-08-22 18:58:00,74.7,70.2,29.90,WSW,244,2.0,11.0,86,0.00,,,0.02,meteohub,2013-08-22 22:58:00,
2013-08-22 18:59:00,74.8,70.3,29.90,SW,236,3.0,11.0,86,0.00,,,0.02,meteohub,2013-08-22 22:59:00,
2013-08-22 19:00:00,74.8,70.3,29.90,West,265,7.0,9.0,86,0.00,,,0.02,meteohub,2013-08-22 23:00:00,
2013-08-22 19:03:00,74.8,70.3,29.90,WSW,250,7.0,9.0,86,0.00,,,0.02,meteohub,2013-08-22 23:03:00,
2013-08-22 19:04:00,74.8,70.0,29.90,WNW,294,2.0,9.0,85,0.00,,,0.02,meteohub,2013-08-22 23:04:00,
2013-08-22 19:05:00,74.8,70.0,29.90,WNW,298,3.0,9.0,85,0.00,,,0.02,meteohub,2013-08-22 23:05:00,
2013-08-22 19:08:00,74.8,70.0,29.90,WSW,255,3.0,9.0,85,0.00,,,0.02,meteohub,2013-08-22 23:08:00,
2013-08-22 19:09:00,74.8,70.0,29.90,WSW,251,5.0,9.0,85,0.00,,,0.02,meteohub,2013-08-22 23:09:00,
2013-08-22 19:10:00,74.7,69.8,29.90,West,261,3.0,9.0,85,0.00,,,0.02,meteohub,2013-08-22 23:10:00,
2013-08-22 19:14:00,74.7,69.8,29.90,WSW,238,3.0,9.0,85,0.00,,,0.02,meteohub,2013-08-22 23:14:00,
2013-08-22 19:15:00,74.5,69.6,29.90,WSW,244,4.0,9.0,85,0.00,,,0.02,meteohub,2013-08-22 23:15:00,
2013-08-22 19:16:00,74.7,69.8,29.90,WSW,239,1.0,9.0,85,0.00,,,0.02,meteohub,2013-08-22 23:16:00,
2013-08-22 19:19:00,74.5,69.6,29.90,WSW,239,4.0,9.0,85,0.00,,,0.02,meteohub,2013-08-22 23:19:00,
2013-08-22 19:20:00,74.7,69.8,29.90,WSW,241,4.0,9.0,85,0.00,,,0.02,meteohub,2013-08-22 23:20:00,
2013-08-22 19:21:00,74.7,69.8,29.90,WSW,240,5.0,9.0,85,0.00,,,0.02,meteohub,2013-08-22 23:21:00,
2013-08-22 19:24:00,74.7,69.8,29.90,West,259,6.0,9.0,85,0.00,,,0.02,meteohub,2013-08-22 23:24:00,
2013-08-22 19:26:00,74.7,69.8,29.90,WSW,249,2.0,8.0,85,0.00,,,0.02,meteohub,2013-08-22 23:26:00,
2013-08-22 19:29:00,74.8,70.0,29.90,West,271,2.0,8.0,85,0.00,,,0.02,meteohub,2013-08-22 23:29:00,
2013-08-22 19:30:00,74.8,70.0,29.90,WSW,257,3.0,8.0,85,0.00,,,0.02,meteohub,2013-08-22 23:30:00,
2013-08-22 19:31:00,74.7,69.8,29.90,WSW,254,3.0,8.0,85,0.00,,,0.02,meteohub,2013-08-22 23:31:00,
2013-08-22 19:32:00,74.8,70.0,29.90,West,259,4.0,8.0,85,0.00,,,0.02,meteohub,2013-08-22 23:32:00,
2013-08-22 19:34:00,74.8,70.0,29.90,WSW,251,2.0,8.0,85,0.00,,,0.02,meteohub,2013-08-22 23:34:00,
2013-08-22 19:35:00,74.8,70.0,29.90,WSW,251,3.0,8.0,85,0.00,,,0.02,meteohub,2013-08-22 23:35:00,
2013-08-22 19:37:00,74.8,70.0,29.90,WSW,242,3.0,8.0,85,0.00,,,0.02,meteohub,2013-08-22 23:37:00,
2013-08-22 19:40:00,74.8,70.0,29.90,SW,234,4.0,8.0,85,0.00,,,0.02,meteohub,2013-08-22 23:40:00,
2013-08-22 19:42:00,74.8,70.0,29.90,WSW,240,3.0,8.0,85,0.00,,,0.02,meteohub,2013-08-22 23:42:00,
2013-08-22 19:46:00,74.8,70.0,29.90,SW,227,2.0,7.0,85,0.00,,,0.02,meteohub,2013-08-22 23:46:00,
2013-08-22 19:47:00,74.8,70.0,29.90,WSW,243,4.0,7.0,85,0.00,,,0.02,meteohub,2013-08-22 23:47:00,
2013-08-22 19:48:00,74.8,69.6,29.90,WSW,242,5.0,7.0,84,0.00,,,0.02,meteohub,2013-08-22 23:48:00,
2013-08-22 19:51:00,75.0,69.8,29.90,WSW,244,4.0,10.0,84,0.00,,,0.02,meteohub,2013-08-22 23:51:00,
2013-08-22 19:53:00,75.0,69.4,29.90,WSW,241,3.0,10.0,83,0.00,,,0.02,meteohub,2013-08-22 23:53:00,
2013-08-22 19:55:00,75.0,69.4,29.90,WSW,240,6.0,10.0,83,0.00,,,0.02,meteohub,2013-08-22 23:55:00,
2013-08-22 19:56:00,75.0,69.4,29.90,WSW,242,3.0,10.0,83,0.00,,,0.02,meteohub,2013-08-22 23:56:00,
2013-08-22 19:57:00,75.2,69.6,29.90,West,269,4.0,10.0,83,0.00,,,0.02,meteohub,2013-08-22 23:57:00,
2013-08-22 19:58:00,75.4,69.8,29.90,WSW,249,9.0,10.0,83,0.00,,,0.02,meteohub,2013-08-22 23:58:00,
2013-08-22 19:59:00,75.4,69.8,29.90,WSW,248,8.0,10.0,83,0.00,,,0.02,meteohub,2013-08-22 23:59:00,
2013-08-22 20:00:00,75.4,69.8,29.90,WSW,248,7.0,10.0,83,0.00,,,0.02,meteohub,2013-08-23 00:00:00,
2013-08-22 20:01:00,75.4,69.4,29.90,WSW,244,7.0,10.0,82,0.00,,,0.02,meteohub,2013-08-23 00:01:00,
2013-08-22 20:03:00,75.4,69.4,29.90,SW,234,6.0,10.0,82,0.00,,,0.02,meteohub,2013-08-23 00:03:00,
2013-08-22 20:04:00,75.4,69.4,29.90,SW,234,7.0,10.0,82,0.00,,,0.02,meteohub,2013-08-23 00:04:00,
2013-08-22 20:05:00,75.4,69.4,29.90,WSW,244,5.0,10.0,82,0.00,,,0.02,meteohub,2013-08-23 00:05:00,
2013-08-22 20:07:00,75.4,69.4,29.90,WSW,242,9.0,10.0,82,0.00,,,0.02,meteohub,2013-08-23 00:07:00,
2013-08-22 20:08:00,75.4,69.4,29.90,SW,236,3.0,10.0,82,0.00,,,0.02,meteohub,2013-08-23 00:08:00,
2013-08-22 20:09:00,75.4,69.4,29.90,West,261,2.0,10.0,82,0.00,,,0.02,meteohub,2013-08-23 00:09:00,
2013-08-22 20:10:00,75.6,69.6,29.90,WSW,254,7.0,10.0,82,0.00,,,0.02,meteohub,2013-08-23 00:10:00,
2013-08-22 20:12:00,75.6,69.6,29.90,WSW,247,9.0,10.0,82,0.00,,,0.02,meteohub,2013-08-23 00:12:00,
2013-08-22 20:13:00,75.6,69.6,29.90,WSW,254,7.0,10.0,82,0.00,,,0.02,meteohub,2013-08-23 00:13:00,
2013-08-22 20:15:00,75.6,69.6,29.90,SW,223,5.0,10.0,82,0.00,,,0.02,meteohub,2013-08-23 00:15:00,
2013-08-22 20:16:00,75.6,69.3,29.90,WSW,254,4.0,10.0,81,0.00,,,0.02,meteohub,2013-08-23 00:16:00,
2013-08-22 20:17:00,75.6,69.3,29.90,West,271,6.0,10.0,81,0.00,,,0.02,meteohub,2013-08-23 00:17:00,
2013-08-22 20:20:00,75.7,69.4,29.90,WSW,247,5.0,10.0,81,0.00,,,0.02,meteohub,2013-08-23 00:20:00,
2013-08-22 20:21:00,75.7,69.4,29.90,SW,227,7.0,12.0,81,0.00,,,0.02,meteohub,2013-08-23 00:21:00,
2013-08-22 20:22:00,75.7,69.4,29.90,SW,217,5.0,12.0,81,0.00,,,0.02,meteohub,2013-08-23 00:22:00,
2013-08-22 20:23:00,75.7,69.4,29.90,SW,223,5.0,12.0,81,0.00,,,0.02,meteohub,2013-08-23 00:23:00,
2013-08-22 20:25:00,75.7,69.1,29.90,WSW,245,7.0,12.0,80,0.00,,,0.02,meteohub,2013-08-23 00:25:00,
2013-08-22 20:26:00,75.7,69.1,29.90,WSW,250,3.0,12.0,80,0.00,,,0.02,meteohub,2013-08-23 00:26:00,
2013-08-22 20:27:00,75.7,69.1,29.90,SW,222,6.0,12.0,80,0.00,,,0.02,meteohub,2013-08-23 00:27:00,
2013-08-22 20:29:00,75.7,69.1,29.90,SW,233,5.0,12.0,80,0.00,,,0.02,meteohub,2013-08-23 00:29:00,
2013-08-22 20:30:00,75.9,69.3,29.90,SW,233,6.0,12.0,80,0.00,,,0.02,meteohub,2013-08-23 00:30:00,
2013-08-22 20:31:00,75.9,69.3,29.90,WSW,245,5.0,13.0,80,0.00,,,0.02,meteohub,2013-08-23 00:31:00,
2013-08-22 20:33:00,75.9,69.3,29.90,SW,223,4.0,13.0,80,0.00,,,0.02,meteohub,2013-08-23 00:33:00,
2013-08-22 20:34:00,75.9,69.6,29.90,WSW,246,4.0,13.0,81,0.00,,,0.02,meteohub,2013-08-23 00:34:00,
2013-08-22 20:35:00,75.9,69.6,29.90,WSW,244,4.0,13.0,81,0.00,,,0.02,meteohub,2013-08-23 00:35:00,
2013-08-22 20:36:00,75.9,69.6,29.90,WSW,245,5.0,13.0,81,0.00,,,0.02,meteohub,2013-08-23 00:36:00,
2013-08-22 20:38:00,76.1,69.8,29.90,WSW,252,3.0,13.0,81,0.00,,,0.02,meteohub,2013-08-23 00:38:00,
2013-08-22 20:39:00,76.1,69.8,29.90,WSW,251,3.0,13.0,81,0.00,,,0.02,meteohub,2013-08-23 00:39:00,
2013-08-22 20:40:00,76.1,69.8,29.90,WSW,249,3.0,10.0,81,0.00,,,0.02,meteohub,2013-08-23 00:40:00,
2013-08-22 20:41:00,76.1,69.8,29.90,WSW,256,3.0,10.0,81,0.00,,,0.02,meteohub,2013-08-23 00:41:00,
2013-08-22 20:44:00,76.1,70.2,29.90,WSW,241,10.0,10.0,82,0.00,,,0.02,meteohub,2013-08-23 00:44:00,
2013-08-22 20:46:00,76.1,70.2,29.90,West,260,8.0,10.0,82,0.00,,,0.02,meteohub,2013-08-23 00:46:00,
2013-08-22 20:47:00,76.1,70.2,29.90,WSW,253,5.0,10.0,82,0.00,,,0.02,meteohub,2013-08-23 00:47:00,
2013-08-22 20:49:00,76.1,70.5,29.90,SW,229,8.0,10.0,83,0.00,,,0.02,meteohub,2013-08-23 00:49:00,
2013-08-22 20:51:00,75.9,70.3,29.90,SW,230,7.0,15.0,83,0.00,,,0.02,meteohub,2013-08-23 00:51:00,
2013-08-22 20:52:00,75.9,70.3,29.90,SW,227,6.0,15.0,83,0.00,,,0.02,meteohub,2013-08-23 00:52:00,
2013-08-22 20:54:00,75.9,70.3,29.90,WSW,237,11.0,15.0,83,0.00,,,0.02,meteohub,2013-08-23 00:54:00,
2013-08-22 20:56:00,75.7,70.2,29.90,SW,215,7.0,15.0,83,0.00,,,0.02,meteohub,2013-08-23 00:56:00,
2013-08-22 20:57:00,75.7,70.5,29.90,SW,232,3.0,15.0,84,0.00,,,0.02,meteohub,2013-08-23 00:57:00,
2013-08-22 20:58:00,75.7,70.5,29.90,WSW,249,9.0,15.0,84,0.00,,,0.02,meteohub,2013-08-23 00:58:00,
2013-08-22 20:59:00,75.7,70.5,29.91,WSW,254,9.0,15.0,84,0.00,,,0.02,meteohub,2013-08-23 00:59:00,
2013-08-22 21:00:00,75.7,70.5,29.91,SW,230,6.0,15.0,84,0.00,,,0.02,meteohub,2013-08-23 01:00:00,
2013-08-22 21:02:00,75.7,70.5,29.91,WSW,246,8.0,15.0,84,0.00,,,0.02,meteohub,2013-08-23 01:02:00,
2013-08-22 21:03:00,75.7,70.5,29.91,West,265,7.0,15.0,84,0.00,,,0.02,meteohub,2013-08-23 01:03:00,
2013-08-22 21:04:00,75.7,70.5,29.91,WSW,238,4.0,15.0,84,0.00,,,0.02,meteohub,2013-08-23 01:04:00,
2013-08-22 21:05:00,75.7,70.5,29.91,WSW,242,4.0,15.0,84,0.00,,,0.02,meteohub,2013-08-23 01:05:00,
2013-08-22 21:06:00,75.7,70.5,29.91,WSW,250,5.0,14.0,84,0.00,,,0.02,meteohub,2013-08-23 01:06:00,
2013-08-22 21:07:00,75.7,70.5,29.91,WSW,257,4.0,14.0,84,0.00,,,0.02,meteohub,2013-08-23 01:07:00,
2013-08-22 21:08:00,75.7,70.5,29.91,SW,234,4.0,14.0,84,0.00,,,0.02,meteohub,2013-08-23 01:08:00,
2013-08-22 21:09:00,75.7,70.5,29.91,WSW,248,7.0,14.0,84,0.00,,,0.02,meteohub,2013-08-23 01:09:00,
2013-08-22 21:10:00,75.7,70.5,29.91,WSW,250,5.0,12.0,84,0.00,,,0.02,meteohub,2013-08-23 01:10:00,
2013-08-22 21:12:00,75.7,70.5,29.91,WSW,250,4.0,12.0,84,0.00,,,0.02,meteohub,2013-08-23 01:12:00,
2013-08-22 21:13:00,75.7,70.5,29.91,WSW,252,7.0,12.0,84,0.00,,,0.02,meteohub,2013-08-23 01:13:00,
2013-08-22 21:15:00,75.7,70.5,29.91,West,261,3.0,12.0,84,0.00,,,0.02,meteohub,2013-08-23 01:15:00,
2013-08-22 21:17:00,75.7,70.5,29.91,SW,233,3.0,12.0,84,0.00,,,0.02,meteohub,2013-08-23 01:17:00,
2013-08-22 21:18:00,75.7,70.5,29.91,SW,230,4.0,12.0,84,0.00,,,0.02,meteohub,2013-08-23 01:18:00,
2013-08-22 21:20:00,75.7,70.9,29.91,WSW,248,8.0,10.0,85,0.00,,,0.02,meteohub,2013-08-23 01:20:00,
2013-08-22 21:21:00,75.7,70.9,29.91,WSW,237,11.0,11.0,85,0.00,,,0.02,meteohub,2013-08-23 01:21:00,
2013-08-22 21:22:00,75.7,70.9,29.91,WSW,256,1.0,10.0,85,0.00,,,0.02,meteohub,2013-08-23 01:22:00,
2013-08-22 21:23:00,75.7,70.9,29.91,WSW,251,2.0,10.0,85,0.00,,,0.02,meteohub,2013-08-23 01:23:00,
2013-08-22 21:24:00,75.7,70.9,29.91,WSW,237,6.0,10.0,85,0.00,,,0.02,meteohub,2013-08-23 01:24:00,
2013-08-22 21:26:00,75.7,70.9,29.91,WSW,255,10.0,11.0,85,0.00,,,0.02,meteohub,2013-08-23 01:26:00,
2013-08-22 21:28:00,75.6,70.7,29.91,WSW,251,3.0,11.0,85,0.00,,,0.02,meteohub,2013-08-23 01:28:00,
2013-08-22 21:29:00,75.6,71.1,29.91,WSW,256,4.0,11.0,86,0.00,,,0.02,meteohub,2013-08-23 01:29:00,
2013-08-22 21:31:00,75.6,70.7,29.91,WSW,242,5.0,12.0,85,0.00,,,0.02,meteohub,2013-08-23 01:31:00,
2013-08-22 21:34:00,75.2,70.7,29.91,WSW,254,7.0,12.0,86,0.00,,,0.02,meteohub,2013-08-23 01:34:00,
2013-08-22 21:35:00,75.0,70.5,29.91,West,262,4.0,12.0,86,0.00,,,0.02,meteohub,2013-08-23 01:35:00,
2013-08-22 21:36:00,75.0,70.5,29.91,WSW,248,4.0,12.0,86,0.00,,,0.02,meteohub,2013-08-23 01:36:00,
2013-08-22 21:37:00,75.0,70.5,29.91,West,261,4.0,12.0,86,0.00,,,0.02,meteohub,2013-08-23 01:37:00,
2013-08-22 21:39:00,74.8,70.3,29.90,WSW,239,4.0,12.0,86,0.00,,,0.02,meteohub,2013-08-23 01:39:00,
2013-08-22 21:41:00,74.8,70.3,29.90,WNW,285,2.0,10.0,86,0.00,,,0.02,meteohub,2013-08-23 01:41:00,
2013-08-22 21:42:00,74.8,70.7,29.90,WSW,252,2.0,10.0,87,0.00,,,0.02,meteohub,2013-08-23 01:42:00,
2013-08-22 21:45:00,74.8,70.7,29.90,SW,232,4.0,10.0,87,0.00,,,0.02,meteohub,2013-08-23 01:45:00,
2013-08-22 21:46:00,74.8,70.7,29.90,WSW,252,2.0,9.0,87,0.00,,,0.02,meteohub,2013-08-23 01:46:00,
2013-08-22 21:47:00,74.8,70.7,29.90,WSW,254,3.0,9.0,87,0.00,,,0.02,meteohub,2013-08-23 01:47:00,
2013-08-22 21:49:00,74.8,71.1,29.90,WSW,252,3.0,9.0,88,0.00,,,0.02,meteohub,2013-08-23 01:49:00,
2013-08-22 21:50:00,74.8,71.1,29.90,WSW,254,3.0,7.0,88,0.00,,,0.02,meteohub,2013-08-23 01:50:00,
2013-08-22 21:51:00,74.8,71.1,29.90,WSW,239,2.0,7.0,88,0.00,,,0.02,meteohub,2013-08-23 01:51:00,
2013-08-22 21:52:00,74.8,71.1,29.90,WSW,238,1.0,7.0,88,0.00,,,0.02,meteohub,2013-08-23 01:52:00,
2013-08-22 21:53:00,74.8,71.1,29.90,WSW,238,3.0,7.0,88,0.00,,,0.02,meteohub,2013-08-23 01:53:00,
2013-08-22 21:55:00,74.8,71.4,29.90,SW,234,3.0,7.0,89,0.00,,,0.02,meteohub,2013-08-23 01:55:00,
2013-08-22 21:57:00,74.8,71.4,29.90,SW,231,4.0,7.0,89,0.00,,,0.02,meteohub,2013-08-23 01:57:00,
2013-08-22 21:58:00,74.8,71.4,29.90,WSW,242,5.0,7.0,89,0.00,,,0.02,meteohub,2013-08-23 01:58:00,
2013-08-22 22:00:00,74.8,71.4,29.90,WSW,252,4.0,7.0,89,0.00,,,0.02,meteohub,2013-08-23 02:00:00,
2013-08-22 22:02:00,75.0,71.6,29.90,West,265,7.0,7.0,89,0.00,,,0.02,meteohub,2013-08-23 02:02:00,
2013-08-22 22:04:00,75.0,71.6,29.90,West,259,4.0,7.0,89,0.00,,,0.02,meteohub,2013-08-23 02:04:00,
2013-08-22 22:05:00,75.0,71.6,29.90,WSW,256,7.0,7.0,89,0.00,,,0.02,meteohub,2013-08-23 02:05:00,
2013-08-22 22:06:00,75.0,71.6,29.90,SW,217,5.0,7.0,89,0.00,,,0.02,meteohub,2013-08-23 02:06:00,
2013-08-22 22:07:00,75.0,71.6,29.90,WSW,248,7.0,7.0,89,0.00,,,0.02,meteohub,2013-08-23 02:07:00,
2013-08-22 22:08:00,75.0,71.6,29.90,SW,230,4.0,7.0,89,0.00,,,0.02,meteohub,2013-08-23 02:08:00,
2013-08-22 22:09:00,75.0,71.6,29.90,WSW,245,5.0,7.0,89,0.00,,,0.02,meteohub,2013-08-23 02:09:00,
2013-08-22 22:10:00,75.0,71.6,29.90,SW,234,5.0,9.0,89,0.00,,,0.02,meteohub,2013-08-23 02:10:00,
2013-08-22 22:11:00,75.0,71.6,29.90,SW,235,3.0,9.0,89,0.00,,,0.02,meteohub,2013-08-23 02:11:00,
2013-08-22 22:12:00,75.0,71.6,29.90,WSW,257,5.0,9.0,89,0.00,,,0.02,meteohub,2013-08-23 02:12:00,
2013-08-22 22:14:00,75.0,72.0,29.90,WSW,242,6.0,9.0,90,0.00,,,0.02,meteohub,2013-08-23 02:14:00,
2013-08-22 22:16:00,75.0,72.0,29.90,SW,232,6.0,9.0,90,0.00,,,0.02,meteohub,2013-08-23 02:16:00,
2013-08-22 22:17:00,75.0,72.0,29.90,West,269,4.0,9.0,90,0.00,,,0.02,meteohub,2013-08-23 02:17:00,
2013-08-22 22:20:00,75.0,72.0,29.89,WSW,253,4.0,9.0,90,0.00,,,0.02,meteohub,2013-08-23 02:20:00,
2013-08-22 22:21:00,75.0,72.0,29.89,WSW,245,2.0,9.0,90,0.00,,,0.02,meteohub,2013-08-23 02:21:00,
2013-08-22 22:22:00,75.0,72.0,29.89,WSW,243,5.0,9.0,90,0.00,,,0.02,meteohub,2013-08-23 02:22:00,
2013-08-22 22:25:00,75.0,72.0,29.90,SW,222,5.0,9.0,90,0.00,,,0.02,meteohub,2013-08-23 02:25:00,
2013-08-22 22:26:00,75.0,72.0,29.90,WSW,250,7.0,8.0,90,0.00,,,0.02,meteohub,2013-08-23 02:26:00,
2013-08-22 22:27:00,75.0,72.0,29.90,West,260,7.0,8.0,90,0.00,,,0.02,meteohub,2013-08-23 02:27:00,
2013-08-22 22:30:00,75.0,72.0,29.90,WSW,244,5.0,9.0,90,0.00,,,0.02,meteohub,2013-08-23 02:30:00,
2013-08-22 22:31:00,75.0,72.0,29.90,SW,226,4.0,9.0,90,0.00,,,0.02,meteohub,2013-08-23 02:31:00,
2013-08-22 22:32:00,75.0,72.0,29.90,SW,226,8.0,9.0,90,0.00,,,0.02,meteohub,2013-08-23 02:32:00,
2013-08-22 22:33:00,74.8,71.8,29.90,SW,227,3.0,9.0,90,0.00,,,0.02,meteohub,2013-08-23 02:33:00,
2013-08-22 22:35:00,74.8,71.8,29.90,SW,218,4.0,9.0,90,0.00,,,0.02,meteohub,2013-08-23 02:35:00,
2013-08-22 22:36:00,74.8,71.8,29.90,WSW,248,3.0,9.0,90,0.00,,,0.02,meteohub,2013-08-23 02:36:00,
2013-08-22 22:37:00,74.8,71.8,29.90,WSW,242,6.0,9.0,90,0.00,,,0.02,meteohub,2013-08-23 02:37:00,
2013-08-22 22:38:00,74.8,71.8,29.90,SSW,209,4.0,9.0,90,0.00,,,0.02,meteohub,2013-08-23 02:38:00,
2013-08-22 22:39:00,75.0,72.0,29.90,SW,222,5.0,9.0,90,0.00,,,0.02,meteohub,2013-08-23 02:39:00,
2013-08-22 22:40:00,75.0,72.0,29.90,WSW,252,4.0,9.0,90,0.00,,,0.02,meteohub,2013-08-23 02:40:00,
2013-08-22 22:42:00,75.0,72.0,29.90,SSW,208,3.0,9.0,90,0.00,,,0.02,meteohub,2013-08-23 02:42:00,
2013-08-22 22:43:00,75.0,72.0,29.90,SW,234,2.0,9.0,90,0.00,,,0.02,meteohub,2013-08-23 02:43:00,
2013-08-22 22:45:00,75.0,72.0,29.90,WSW,246,4.0,9.0,90,0.00,,,0.02,meteohub,2013-08-23 02:45:00,
2013-08-22 22:47:00,75.0,72.0,29.90,SW,215,5.0,9.0,90,0.00,,,0.02,meteohub,2013-08-23 02:47:00,
2013-08-22 22:48:00,75.0,72.0,29.90,SSW,203,4.0,9.0,90,0.00,,,0.02,meteohub,2013-08-23 02:48:00,
2013-08-22 22:50:00,75.0,72.0,29.90,SW,234,3.0,9.0,90,0.00,,,0.02,meteohub,2013-08-23 02:50:00,
2013-08-22 22:52:00,75.0,72.0,29.90,WSW,247,3.0,9.0,90,0.00,,,0.02,meteohub,2013-08-23 02:52:00,
2013-08-22 22:53:00,75.0,72.0,29.90,SW,221,1.0,9.0,90,0.00,,,0.02,meteohub,2013-08-23 02:53:00,
2013-08-22 22:54:00,75.0,72.0,29.90,SW,214,6.0,9.0,90,0.00,,,0.02,meteohub,2013-08-23 02:54:00,
2013-08-22 22:55:00,74.8,71.8,29.90,WSW,246,5.0,9.0,90,0.00,,,0.02,meteohub,2013-08-23 02:55:00,
2013-08-22 22:56:00,74.8,71.8,29.90,WSW,248,3.0,9.0,90,0.00,,,0.02,meteohub,2013-08-23 02:56:00,
2013-08-22 22:57:00,74.8,71.8,29.90,SW,236,3.0,9.0,90,0.00,,,0.02,meteohub,2013-08-23 02:57:00,
2013-08-22 22:58:00,74.8,71.8,29.90,SW,231,3.0,9.0,90,0.00,,,0.02,meteohub,2013-08-23 02:58:00,
2013-08-22 22:59:00,74.8,71.8,29.90,WSW,250,5.0,9.0,90,0.00,,,0.02,meteohub,2013-08-23 02:59:00,
2013-08-22 23:00:00,74.7,71.6,29.90,WSW,240,5.0,10.0,90,0.00,,,0.02,meteohub,2013-08-23 03:00:00,
2013-08-22 23:02:00,74.7,71.6,29.90,SW,231,7.0,10.0,90,0.00,,,0.02,meteohub,2013-08-23 03:02:00,
2013-08-22 23:03:00,74.7,71.6,29.90,WSW,250,4.0,10.0,90,0.00,,,0.02,meteohub,2013-08-23 03:03:00,
2013-08-22 23:04:00,74.7,71.6,29.90,WSW,240,4.0,10.0,90,0.00,,,0.02,meteohub,2013-08-23 03:04:00,
2013-08-22 23:05:00,74.7,71.6,29.90,SW,214,8.0,10.0,90,0.00,,,0.02,meteohub,2013-08-23 03:05:00,
2013-08-22 23:06:00,74.8,71.8,29.90,WSW,244,5.0,10.0,90,0.00,,,0.02,meteohub,2013-08-23 03:06:00,
2013-08-22 23:07:00,74.8,71.8,29.90,SW,232,2.0,10.0,90,0.00,,,0.02,meteohub,2013-08-23 03:07:00,
2013-08-22 23:08:00,74.8,71.8,29.90,SW,232,2.0,10.0,90,0.00,,,0.02,meteohub,2013-08-23 03:08:00,
2013-08-22 23:09:00,74.7,71.6,29.90,SW,228,1.0,10.0,90,0.00,,,0.02,meteohub,2013-08-23 03:09:00,
2013-08-22 23:10:00,74.7,71.6,29.90,WSW,238,2.0,10.0,90,0.00,,,0.02,meteohub,2013-08-23 03:10:00,
2013-08-22 23:11:00,74.7,71.6,29.90,SW,223,6.0,9.0,90,0.00,,,0.02,meteohub,2013-08-23 03:11:00,
2013-08-22 23:12:00,74.7,71.6,29.90,WSW,238,4.0,9.0,90,0.00,,,0.02,meteohub,2013-08-23 03:12:00,
2013-08-22 23:14:00,74.7,71.6,29.90,SW,214,5.0,9.0,90,0.00,,,0.02,meteohub,2013-08-23 03:14:00,
2013-08-22 23:15:00,74.7,71.6,29.90,WSW,238,3.0,9.0,90,0.00,,,0.02,meteohub,2013-08-23 03:15:00,
2013-08-22 23:17:00,74.7,71.8,29.90,SW,231,10.0,10.0,91,0.00,,,0.02,meteohub,2013-08-23 03:17:00,
2013-08-22 23:18:00,74.7,71.8,29.90,SSW,206,4.0,9.0,91,0.00,,,0.02,meteohub,2013-08-23 03:18:00,
2013-08-22 23:19:00,74.7,71.8,29.90,SSW,213,3.0,9.0,91,0.00,,,0.02,meteohub,2013-08-23 03:19:00,
2013-08-22 23:20:00,74.5,71.6,29.90,SW,228,3.0,10.0,91,0.00,,,0.02,meteohub,2013-08-23 03:20:00,
2013-08-22 23:23:00,74.5,71.6,29.90,SW,221,2.0,10.0,91,0.00,,,0.02,meteohub,2013-08-23 03:23:00,
2013-08-22 23:24:00,74.5,71.6,29.89,SW,223,1.0,10.0,91,0.00,,,0.02,meteohub,2013-08-23 03:24:00,
2013-08-22 23:25:00,74.5,71.6,29.90,South,186,6.0,10.0,91,0.00,,,0.02,meteohub,2013-08-23 03:25:00,
2013-08-22 23:26:00,74.5,71.6,29.89,SW,233,5.0,10.0,91,0.00,,,0.02,meteohub,2013-08-23 03:26:00,
2013-08-22 23:28:00,74.5,71.6,29.89,West,265,3.0,10.0,91,0.00,,,0.02,meteohub,2013-08-23 03:28:00,
2013-08-22 23:29:00,74.3,71.4,29.89,WSW,248,8.0,10.0,91,0.00,,,0.02,meteohub,2013-08-23 03:29:00,
2013-08-22 23:30:00,74.5,71.6,29.89,SW,217,6.0,10.0,91,0.00,,,0.02,meteohub,2013-08-23 03:30:00,
2013-08-22 23:31:00,74.5,71.6,29.89,SW,233,3.0,10.0,91,0.00,,,0.02,meteohub,2013-08-23 03:31:00,
2013-08-22 23:33:00,74.5,71.6,29.89,WSW,247,4.0,10.0,91,0.00,,,0.02,meteohub,2013-08-23 03:33:00,
2013-08-22 23:34:00,74.5,71.6,29.89,WSW,244,9.0,10.0,91,0.00,,,0.02,meteohub,2013-08-23 03:34:00,
2013-08-22 23:35:00,74.5,71.6,29.89,SW,236,5.0,10.0,91,0.00,,,0.02,meteohub,2013-08-23 03:35:00,
2013-08-22 23:36:00,74.5,71.6,29.89,WSW,238,5.0,12.0,91,0.00,,,0.02,meteohub,2013-08-23 03:36:00,
2013-08-22 23:37:00,74.5,71.6,29.89,West,273,6.0,12.0,91,0.00,,,0.02,meteohub,2013-08-23 03:37:00,
2013-08-22 23:38:00,74.5,71.6,29.89,SW,232,5.0,12.0,91,0.00,,,0.02,meteohub,2013-08-23 03:38:00,
2013-08-22 23:39:00,74.5,71.6,29.89,WSW,248,4.0,12.0,91,0.00,,,0.02,meteohub,2013-08-23 03:39:00,
2013-08-22 23:40:00,74.5,71.6,29.89,WSW,255,3.0,12.0,91,0.00,,,0.02,meteohub,2013-08-23 03:40:00,
2013-08-22 23:41:00,74.5,71.6,29.89,SW,227,4.0,12.0,91,0.00,,,0.02,meteohub,2013-08-23 03:41:00,
2013-08-22 23:42:00,74.5,71.6,29.89,SW,236,3.0,12.0,91,0.00,,,0.02,meteohub,2013-08-23 03:42:00,
2013-08-22 23:44:00,74.5,72.0,29.89,SW,234,4.0,12.0,92,0.00,,,0.02,meteohub,2013-08-23 03:44:00,
2013-08-22 23:45:00,74.5,71.6,29.89,SW,230,6.0,12.0,91,0.00,,,0.02,meteohub,2013-08-23 03:45:00,
2013-08-22 23:46:00,74.5,71.6,29.89,SW,234,5.0,12.0,91,0.00,,,0.02,meteohub,2013-08-23 03:46:00,
2013-08-22 23:47:00,74.5,71.6,29.89,SW,236,6.0,12.0,91,0.00,,,0.02,meteohub,2013-08-23 03:47:00,
2013-08-22 23:49:00,74.5,71.6,29.89,WSW,248,4.0,12.0,91,0.00,,,0.02,meteohub,2013-08-23 03:49:00,
2013-08-22 23:50:00,74.5,71.6,29.89,WSW,246,3.0,12.0,91,0.00,,,0.02,meteohub,2013-08-23 03:50:00,
2013-08-22 23:51:00,74.5,71.6,29.89,WSW,242,6.0,10.0,91,0.00,,,0.02,meteohub,2013-08-23 03:51:00,
2013-08-22 23:52:00,74.5,71.6,29.89,SW,234,2.0,10.0,91,0.00,,,0.02,meteohub,2013-08-23 03:52:00,
2013-08-22 23:53:00,74.5,71.6,29.89,WSW,246,4.0,10.0,91,0.00,,,0.02,meteohub,2013-08-23 03:53:00,
2013-08-22 23:54:00,74.5,71.6,29.89,WSW,244,2.0,10.0,91,0.00,,,0.02,meteohub,2013-08-23 03:54:00,
2013-08-22 23:55:00,74.5,71.6,29.89,West,264,7.0,9.0,91,0.00,,,0.02,meteohub,2013-08-23 03:55:00,
2013-08-22 23:56:00,74.5,71.6,29.89,West,270,4.0,9.0,91,0.00,,,0.02,meteohub,2013-08-23 03:56:00,
2013-08-22 23:58:00,74.5,71.6,29.89,WSW,246,7.0,9.0,91,0.00,,,0.02,meteohub,2013-08-23 03:58:00,